GEFSSGP_850_meantemp_144.txt.gz
Temperature
20 20 20 20 18 17 19 19 19 19 19 18 18 18 18 17 17 17 17 17 17 17 17 17 17 17 17 17 17 17 17 17 17 17 17 17 17 17 17 17 17 17 17 17 17 17 17 17 17
20 20 20 20 17 18 19 19 19 19 19 19 18 18 17 16 17 17 17 17 17 17 17 17 17 17 17 17 17 17 17 17 17 17 17 17 16 16 16 16 16 17 17 17 17 17 17 17 17
20 20 20 17 18 18 19 19 19 19 19 19 18 18 17 17 17 17 17 17 17 17 17 17 17 17 17 17 17 17 17 17 16 16 16 16 16 16 16 16 16 16 16 16 16 17 17 17 17
20 20 20 17 19 19 19 19 19 19 19 19 18 17 17 17 18 18 17 17 17 17 17 17 17 17 17 17 17 16 16 16 16 16 16 16 16 16 16 16 15 15 16 16 16 16 16 16 16
20 20 18 18 19 19 19 19 19 18 18 18 18 17 17 17 18 18 17 17 17 17 17 17 17 17 16 16 16 16 16 16 16 16 15 15 15 15 15 15 15 15 15 15 16 16 16 16 16
20 18 17 18 19 19 19 19 19 18 18 18 18 17 17 17 18 17 17 17 17 17 17 17 16 16 16 16 16 16 16 15 15 15 15 15 15 15 15 15 15 15 15 15 15 16 16 16 16
19 16 18 18 18 19 19 19 18 18 18 18 18 16 17 17 17 17 17 17 17 17 17 16 16 16 16 16 16 16 16 15 15 15 15 15 15 15 15 15 15 15 15 15 15 16 16 16 16
19 16 18 18 18 19 19 19 18 18 18 18 18 17 17 17 17 17 17 17 17 17 17 16 16 16 16 16 16 16 15 15 15 15 15 15 15 15 15 15 15 15 15 15 15 15 16 16 16
19 16 17 18 18 19 19 19 19 19 18 18 18 18 18 17 17 17 17 17 17 17 17 16 16 16 16 16 16 16 16 15 15 15 15 15 15 15 15 15 15 15 15 15 15 15 15 16 16
19 17 18 19 19 18 18 19 18 18 18 18 18 18 18 17 17 17 17 17 17 17 17 17 16 16 16 16 16 16 15 15 15 15 15 15 15 15 15 15 15 15 15 15 15 15 15 16 16
19 18 19 19 19 19 19 18 18 18 17 18 18 18 18 17 18 18 18 18 17 17 17 17 16 16 16 16 16 16 16 15 15 15 15 15 15 15 15 15 15 15 15 15 15 15 15 16 16
18 19 19 19 20 19 19 18 18 18 19 19 19 18 18 18 18 18 18 18 18 17 17 17 17 16 16 16 16 16 16 16 16 15 15 15 15 15 15 15 15 15 15 15 15 15 16 16 16
19 19 19 19 20 19 19 18 18 18 19 19 18 18 18 18 18 18 18 18 18 18 17 17 17 17 16 16 16 16 16 16 16 15 15 15 15 15 15 15 15 15 15 15 15 15 15 15 16
19 19 19 19 19 19 18 18 18 18 19 18 18 18 18 18 18 18 18 18 18 18 17 17 17 17 17 16 16 16 16 16 16 15 15 15 15 15 15 15 15 15 15 15 15 15 15 15 15
19 18 18 18 19 19 19 18 17 18 19 18 18 18 18 18 18 18 18 18 18 18 18 17 17 17 17 16 16 16 16 16 15 15 15 15 15 15 15 15 15 15 15 15 15 15 15 15 15
18 17 17 18 18 19 19 17 18 18 18 18 18 18 18 18 18 18 18 18 18 18 18 17 17 17 17 16 16 16 16 16 15 15 15 15 15 15 15 15 15 15 15 15 15 15 15 15 15
17 17 17 18 18 18 18 18 18 18 18 18 18 18 18 18 18 18 18 18 18 18 18 18 17 17 17 16 16 16 16 15 15 15 15 15 15 15 15 15 15 15 15 15 15 15 15 15 15
17 17 17 17 18 18 17 17 17 18 18 18 18 18 18 18 19 19 19 18 18 18 18 18 17 17 17 16 16 16 16 15 15 15 15 15 15 15 15 15 15 15 15 15 15 15 15 15 15
17 17 17 17 18 18 17 17 17 17 17 17 17 18 18 19 19 19 19 18 18 18 18 18 17 17 17 16 16 16 16 15 15 15 15 15 15 15 15 15 15 15 15 15 15 15 15 15 15
17 17 17 17 18 18 17 17 17 17 17 18 18 18 18 19 19 19 19 19 18 18 18 18 18 17 17 17 16 16 16 15 15 15 15 15 15 15 15 15 15 15 15 15 15 15 15 15 15
17 17 17 17 17 17 17 17 17 17 17 18 18 19 19 19 19 19 19 19 19 18 18 18 18 17 17 17 16 16 16 15 15 15 15 15 15 15 15 15 15 15 15 15 15 15 15 15 15
17 17 17 17 16 15 17 16 16 16 16 17 18 18 19 19 19 19 19 19 19 19 18 18 18 17 17 17 16 16 16 16 15 15 15 15 15 15 15 15 15 15 15 15 15 15 15 15 15
17 17 17 16 16 15 16 15 15 16 16 16 17 18 19 19 19 19 19 19 19 19 18 18 18 17 17 17 16 16 16 16 15 15 15 15 15 15 15 15 15 15 15 15 15 15 15 15 15
17 16 15 14 14 15 16 15 15 15 16 17 18 18 19 19 19 19 19 19 19 19 18 18 18 17 17 17 17 16 16 16 16 15 15 15 15 15 15 15 15 15 15 15 15 15 15 15 15
16 15 15 15 14 15 16 15 16 17 17 18 18 19 19 20 19 19 19 19 19 19 19 18 18 18 17 17 17 16 16 16 16 16 15 15 15 15 15 15 15 15 15 15 15 15 15 15 15
16 15 15 15 15 15 15 15 16 18 18 19 19 19 19 20 20 20 20 20 19 19 19 18 18 18 18 17 17 17 16 16 16 16 15 15 15 15 15 15 15 15 15 15 15 15 15 15 15
16 15 15 14 15 15 15 15 16 18 17 17 18 19 19 19 20 20 20 20 20 19 19 19 18 18 18 17 17 17 17 16 16 16 16 15 15 15 15 15 15 15 15 15 15 15 14 14 15
16 15 14 14 15 15 15 16 16 17 17 17 17 18 19 19 20 20 20 20 20 19 19 19 18 18 18 18 17 17 17 16 16 16 16 16 15 15 15 15 15 15 15 15 15 14 14 14 14
15 15 14 13 14 15 15 16 17 17 17 17 17 18 19 19 20 20 20 20 20 19 19 19 18 18 18 18 17 17 17 17 16 16 16 16 15 15 15 15 15 15 15 14 14 14 14 14 14
16 16 14 15 15 14 14 15 18 17 17 18 18 18 19 19 20 20 20 20 20 19 19 19 18 18 18 18 17 17 17 17 17 16 16 16 16 15 15 15 15 15 15 14 14 14 14 14 14

GEFSSGP_850_meantemp_150.txt.gz
Temperature
20 20 20 20 24 25 25 24 24 23 23 22 22 22 22 21 21 20 17 17 17 17 17 17 17 17 17 17 17 17 17 17 17 17 17 17 17 17 17 17 17 17 17 17 17 17 17 17 18
20 20 20 22 25 25 24 24 24 23 22 21 21 21 21 20 18 18 17 16 17 16 16 16 17 17 17 17 17 17 17 17 17 17 17 17 17 17 17 17 17 17 17 17 17 17 17 17 17
20 20 21 25 25 25 24 24 23 22 21 22 21 21 20 19 18 17 17 16 16 16 16 16 17 17 17 17 17 17 17 17 16 16 16 16 16 16 16 16 16 16 16 16 17 17 17 17 17
20 21 23 25 24 24 24 24 23 22 22 21 21 21 19 18 18 17 16 16 16 16 16 16 17 17 16 16 16 16 16 16 16 16 16 16 16 16 16 16 16 16 16 16 16 16 16 17 17
20 23 24 24 24 24 24 23 23 23 22 21 21 20 19 17 17 17 16 16 16 16 16 16 16 16 16 16 16 16 16 16 15 15 15 15 15 15 15 16 15 15 15 16 16 16 16 16 17
22 24 25 24 23 23 23 22 23 23 22 21 21 20 18 17 17 17 16 16 16 16 16 16 16 16 16 16 16 16 15 15 15 15 15 15 15 15 15 15 15 15 15 16 16 16 16 16 16
23 24 24 24 23 23 23 22 22 23 22 21 20 20 18 17 17 16 16 16 16 16 16 16 16 16 16 16 16 15 15 15 15 15 15 15 15 15 15 15 15 15 15 16 16 16 16 16 16
21 24 24 24 23 23 22 21 21 22 21 20 20 20 19 17 17 16 16 16 16 16 16 16 16 16 16 16 16 16 15 15 15 15 15 15 15 15 15 15 15 15 16 16 16 16 16 16 16
21 24 24 24 23 23 22 22 21 20 20 20 19 20 19 17 17 17 17 17 16 16 16 16 16 16 16 16 15 15 16 15 15 15 15 15 15 15 15 15 15 15 15 15 16 16 16 16 16
22 24 24 23 24 23 22 22 21 21 21 20 19 18 18 17 17 17 17 17 17 17 17 17 16 16 16 16 16 15 15 15 15 15 15 15 15 15 15 15 15 15 15 15 15 16 16 16 16
23 23 23 23 22 22 22 21 21 21 21 20 19 18 18 18 18 18 18 18 18 17 17 17 17 16 16 16 16 16 16 15 15 15 15 15 15 15 15 15 15 15 15 15 15 16 16 16 16
23 22 22 22 21 22 22 21 21 21 21 20 19 19 18 18 18 18 18 18 17 17 17 17 17 17 16 16 16 16 16 16 16 15 15 15 15 15 15 15 15 15 15 15 15 15 16 16 16
23 22 21 21 21 21 21 21 21 20 20 19 19 18 18 19 19 18 18 18 18 17 17 17 17 17 16 16 16 16 16 16 16 15 15 15 16 16 16 16 15 15 15 15 15 16 16 16 16
22 22 21 21 21 21 21 21 21 20 19 19 19 19 19 19 18 18 18 18 18 17 17 17 17 16 16 16 16 16 16 16 15 15 15 15 15 15 15 15 15 15 15 15 15 15 15 16 16
21 22 22 21 21 21 21 21 21 20 19 19 19 19 19 18 18 19 18 18 18 18 18 17 17 17 16 16 16 16 16 16 15 15 15 15 15 15 15 15 15 15 15 15 15 15 15 15 15
22 22 21 21 21 21 21 21 21 19 20 20 19 19 19 18 18 19 18 18 18 18 18 17 17 17 16 16 16 16 16 15 15 15 15 15 15 15 15 15 15 15 15 15 15 15 15 15 15
22 22 22 21 21 21 21 21 21 19 20 20 19 19 19 19 19 19 18 18 18 18 18 17 17 17 16 16 16 16 15 15 15 15 15 15 15 15 15 15 15 15 15 15 15 15 15 15 15
21 22 21 21 21 21 21 21 21 20 20 20 20 19 19 19 19 19 18 18 18 18 17 17 17 17 16 16 16 15 15 15 15 15 15 15 15 15 15 15 15 15 15 15 15 15 15 15 15
22 21 21 21 22 21 21 21 21 20 20 20 20 20 20 19 19 19 18 18 18 18 17 17 17 17 16 16 16 15 15 15 15 14 14 14 14 14 15 15 15 15 15 15 15 15 15 15 15
21 21 21 21 21 22 21 21 22 21 21 20 20 20 20 20 19 18 18 18 18 18 17 17 17 17 16 16 16 15 15 15 15 15 14 14 14 14 14 15 15 15 15 15 15 15 15 15 15
21 21 21 21 21 21 21 21 21 21 20 20 20 20 20 20 19 19 19 18 18 18 18 17 17 17 16 16 16 16 15 15 15 14 14 15 15 15 15 15 15 15 15 15 15 14 15 15 15
21 21 21 21 21 21 21 21 22 22 21 21 20 20 20 20 20 19 19 18 18 18 18 18 17 17 16 16 16 16 15 15 15 15 14 15 15 15 15 15 15 15 15 15 15 15 14 15 15
21 20 20 20 20 20 21 21 22 22 21 21 21 20 20 20 20 19 19 19 18 18 18 18 17 17 17 16 16 16 15 15 15 15 14 14 15 15 15 15 15 15 15 15 15 15 15 15 15
20 20 20 20 20 20 21 21 22 22 22 22 22 21 20 20 20 19 19 18 18 18 18 18 17 17 17 17 16 16 16 15 15 15 15 15 15 15 15 15 15 15 15 15 15 15 15 15 15
20 20 20 20 20 20 21 21 22 23 23 23 22 22 21 20 20 19 19 19 19 18 18 18 18 17 17 17 16 16 16 16 15 15 15 15 15 15 15 15 15 15 15 15 15 15 15 15 15
21 21 20 20 20 21 21 21 23 23 22 22 22 22 21 20 20 19 19 19 19 19 19 18 18 17 17 17 16 16 16 16 16 15 15 15 15 15 15 15 15 15 15 15 15 15 15 15 15
21 21 21 21 20 20 21 22 23 23 22 22 22 21 21 20 20 19 19 19 19 19 19 18 18 18 17 17 17 16 16 16 16 15 15 15 15 15 15 15 15 15 15 15 15 15 15 15 15
21 21 20 20 19 20 21 22 22 22 22 22 22 21 21 20 20 19 19 19 19 19 19 18 18 18 17 17 17 16 16 16 16 16 15 15 15 15 15 15 15 15 15 15 15 15 15 15 15
20 20 20 20 20 20 21 22 23 23 23 22 22 21 21 20 20 19 19 19 19 19 19 19 18 18 18 17 17 17 16 16 16 16 16 15 15 15 15 15 15 15 15 14 15 14 14 14 14
21 21 21 20 20 20 21 22 23 23 22 22 22 21 21 20 20 19 19 19 19 19 19 19 18 18 18 17 17 17 17 16 16 16 16 16 15 15 15 15 15 15 15 14 14 14 14 14 14

GEFSSGP_850_meantemp_156.txt.gz
Temperature
21 21 21 21 21 22 23 25 26 25 25 25 25 24 23 22 21 19 18 18 18 18 18 18 18 18 18 18 17 17 17 17 17 17 17 17 17 17 17 17 17 17 17 17 17 17 18 18 18
21 21 21 22 22 23 24 25 25 25 25 25 25 24 23 21 19 18 18 18 18 18 17 18 18 17 17 17 17 17 17 17 17 17 17 17 17 17 17 17 17 17 17 17 17 17 17 17 18
21 21 22 22 23 24 24 25 25 25 25 25 24 23 22 20 19 18 18 18 18 17 17 18 17 17 17 17 17 17 17 17 17 17 16 16 16 16 16 16 16 17 17 17 17 17 17 17 17
21 22 23 23 24 25 25 25 26 25 25 25 24 22 20 20 19 18 18 18 18 17 17 17 17 17 17 17 17 17 17 17 16 16 16 16 16 16 16 16 16 16 16 16 16 16 17 17 17
22 22 23 24 25 26 26 26 26 25 25 25 24 21 19 19 19 19 19 18 18 17 17 17 17 17 17 17 17 16 16 16 16 16 16 16 16 16 16 16 16 16 16 16 16 16 16 17 17
23 24 23 24 25 26 26 26 25 25 24 24 23 21 19 19 19 19 19 19 18 17 17 17 17 17 17 17 16 16 16 16 16 16 16 16 16 16 16 16 16 16 16 16 16 16 16 17 17
23 23 24 25 24 25 25 25 25 25 24 23 23 21 19 19 19 19 19 18 18 18 17 17 17 17 17 17 17 16 16 16 16 16 16 16 16 16 16 16 16 16 16 16 16 16 17 17 17
23 23 24 25 24 24 25 25 25 24 23 23 23 21 19 19 19 19 18 18 18 18 18 17 17 17 17 17 17 16 16 16 16 16 16 16 16 16 16 16 16 16 16 16 16 17 17 17 17
23 23 23 24 24 24 25 25 24 23 23 22 22 21 19 19 19 19 19 18 18 18 18 18 18 17 17 17 17 17 16 16 16 16 16 16 16 16 16 16 16 16 16 16 16 17 17 17 17
24 23 24 25 25 25 24 24 24 24 23 22 21 20 19 19 19 19 19 19 18 18 18 18 18 18 17 17 17 17 17 16 16 16 16 16 16 16 16 16 16 16 16 16 16 17 17 17 17
25 24 25 25 25 25 24 24 24 23 22 22 21 20 19 19 20 20 19 19 19 19 19 19 18 18 18 17 17 17 17 17 17 17 17 17 17 16 16 16 16 16 16 16 16 17 17 17 17
25 25 25 25 25 25 24 24 23 23 22 22 21 20 20 20 20 20 20 19 19 19 19 19 19 18 18 18 17 17 17 17 17 17 17 17 17 17 16 16 16 16 16 16 16 16 17 17 17
25 25 25 24 24 24 24 23 23 22 22 21 21 20 20 20 20 20 20 20 19 19 19 19 19 19 18 18 18 18 17 17 17 17 17 17 17 17 17 17 16 16 16 16 16 16 16 17 17
25 24 24 24 24 24 24 23 23 22 22 21 21 20 21 21 20 20 20 20 19 19 19 19 19 19 18 18 18 18 17 17 17 17 17 17 17 17 17 16 16 16 16 16 16 16 16 16 16
24 24 24 24 24 24 24 23 23 22 22 21 21 21 21 21 20 20 20 20 20 19 19 19 19 18 18 18 18 17 17 17 17 17 17 17 17 17 16 16 16 16 16 16 16 16 16 16 16
24 23 22 24 24 24 23 21 23 22 22 21 21 21 21 21 21 21 20 20 20 20 19 19 19 18 18 18 17 17 17 17 17 16 17 17 17 17 16 16 16 16 16 16 16 16 16 16 16
23 23 23 23 24 24 23 22 22 22 22 22 21 21 20 20 21 21 20 20 20 19 19 19 18 18 17 17 17 17 17 17 16 16 16 16 16 16 16 16 16 16 16 16 16 16 16 16 16
23 23 23 23 24 24 23 22 22 22 22 22 21 21 20 20 21 20 20 20 20 19 19 18 18 18 17 17 17 17 16 16 16 16 16 16 16 16 16 16 16 16 16 16 16 16 16 16 16
24 23 23 23 24 23 23 22 22 22 22 22 21 21 21 21 20 20 20 20 19 19 19 18 18 18 17 17 17 17 16 16 16 15 15 16 16 16 16 16 16 16 15 15 16 16 16 16 16
23 23 23 23 24 23 22 22 23 22 22 22 22 21 21 21 20 20 20 20 19 19 19 19 18 18 17 17 17 17 16 16 16 15 15 15 15 16 16 16 16 16 15 15 15 15 15 16 16
23 23 23 23 23 23 22 22 22 23 23 22 22 21 21 21 20 20 20 20 19 19 19 19 18 18 17 17 17 17 16 16 16 15 15 15 15 15 16 16 16 15 15 15 15 15 15 15 16
22 23 23 23 22 21 22 21 22 22 22 22 22 22 21 21 21 20 20 20 19 19 19 19 18 18 17 17 17 17 16 16 16 15 15 15 15 15 15 16 16 15 15 15 15 15 15 15 16
22 23 23 23 22 21 22 22 22 23 21 22 22 22 22 21 21 20 20 20 19 19 19 19 18 18 17 17 17 16 16 16 16 15 15 15 15 15 15 16 16 16 15 15 15 15 15 15 16
23 23 22 22 21 20 22 22 21 23 22 22 22 22 22 21 21 20 20 20 19 19 19 19 18 18 17 17 17 16 16 16 16 16 16 15 15 15 16 16 16 16 15 15 15 15 15 15 16
22 21 20 20 20 20 23 23 22 24 24 23 23 22 22 21 21 20 20 19 19 19 19 18 18 18 17 17 17 17 16 16 16 16 16 16 15 15 16 16 16 16 16 15 15 15 15 15 15
22 22 20 20 20 21 23 22 23 25 25 24 23 23 22 21 21 20 20 19 19 19 19 18 18 18 17 17 17 17 17 17 16 16 16 16 16 16 16 16 16 16 16 16 16 16 15 15 15
22 22 22 21 21 21 22 23 24 24 24 24 24 23 22 21 21 20 20 19 19 19 19 18 18 18 18 18 17 17 17 17 16 16 16 16 16 16 16 16 16 16 16 16 16 16 16 15 15
23 22 22 21 20 20 22 22 22 23 23 23 23 23 22 22 21 21 20 19 19 19 19 18 18 18 18 18 17 17 17 17 17 17 16 16 16 16 16 16 16 16 16 16 15 15 15 15 15
22 22 22 21 21 20 20 21 23 23 24 24 24 23 22 22 21 21 20 20 19 19 19 18 18 18 18 18 17 17 17 17 17 16 16 16 16 16 16 16 16 16 16 16 15 15 15 15 15
23 23 22 20 20 20 20 21 24 24 24 24 24 23 22 22 21 21 20 20 19 19 18 18 18 18 18 18 18 17 17 17 17 17 17 17 17 17 16 16 16 16 16 16 15 15 15 15 15

GEFSSGP_850_meantemp_162.txt.gz
Temperature
21 21 20 20 18 18 20 21 21 21 21 21 21 20 19 18 18 18 17 17 18 18 18 18 18 18 18 18 18 17 17 17 17 17 17 17 17 17 17 17 17 17 17 17 18 18 18 18 18
21 21 20 20 18 19 20 20 21 22 22 21 21 20 19 18 17 17 17 17 18 18 18 18 17 17 17 17 17 17 17 17 17 17 17 17 17 17 17 17 17 17 17 17 17 18 18 18 18
21 21 20 18 19 19 20 21 21 22 22 22 20 19 19 18 18 17 17 17 18 18 18 17 17 17 17 17 17 17 17 17 17 17 17 17 17 17 17 17 17 17 17 17 17 17 17 17 17
21 21 20 18 20 20 21 21 22 22 22 21 20 19 18 18 18 17 17 18 18 17 17 17 17 17 17 17 17 17 17 17 17 17 16 16 16 16 16 17 17 17 17 17 17 17 17 17 17
21 21 19 19 21 21 21 22 22 21 21 20 19 18 18 18 18 18 17 18 18 17 17 17 17 17 17 17 17 17 17 17 17 16 16 16 16 16 16 16 16 17 17 17 17 17 17 17 17
21 19 18 19 21 21 21 22 22 21 20 20 19 18 17 18 18 18 18 18 18 18 17 17 17 17 17 17 17 17 17 16 16 16 16 16 16 16 16 16 16 16 16 17 17 17 17 17 17
21 18 19 20 20 21 22 22 21 20 20 20 19 18 17 18 18 18 18 18 18 18 17 17 17 17 17 17 17 17 16 16 16 16 16 16 16 16 16 16 16 16 16 16 16 17 17 17 17
22 18 19 19 20 21 22 22 22 21 20 20 20 18 17 18 18 18 18 18 17 17 17 17 17 17 17 17 16 16 16 16 16 16 16 16 16 16 16 16 16 16 16 16 16 16 16 16 16
22 18 19 20 20 21 22 22 21 21 21 20 20 19 19 18 18 18 18 17 17 17 17 17 17 17 17 17 16 16 16 16 16 16 16 16 16 16 16 16 16 16 16 16 16 16 16 16 16
21 18 20 21 21 21 22 22 21 20 19 19 19 19 18 18 18 18 18 18 18 17 17 17 17 17 17 17 17 16 16 16 16 16 16 16 16 16 16 16 16 16 16 16 16 16 16 16 16
21 20 21 22 22 22 22 21 21 20 18 18 18 18 18 18 18 18 18 18 18 18 18 17 17 17 17 17 17 17 16 16 16 16 16 16 16 16 16 16 16 16 16 16 16 16 16 16 16
21 21 22 22 22 22 22 21 21 20 20 20 20 19 18 18 18 18 18 18 18 18 18 18 17 17 17 17 17 17 16 16 16 16 16 16 16 16 16 16 16 16 16 16 16 16 16 16 16
21 21 22 22 22 22 22 21 20 20 20 19 19 19 19 19 18 18 19 18 18 18 18 18 18 17 17 17 17 17 17 17 16 16 16 16 16 16 16 16 16 16 16 16 16 16 16 16 16
22 22 22 22 22 22 21 20 20 19 20 19 19 19 19 19 19 19 19 18 18 18 18 18 18 17 17 17 17 17 17 17 16 16 16 16 16 16 16 16 16 16 16 16 16 16 16 16 16
22 21 21 21 22 21 21 20 19 20 20 19 19 19 19 19 19 19 19 19 19 18 18 18 18 18 17 17 17 17 17 17 16 16 16 16 16 16 16 16 16 16 16 16 16 16 16 16 16
21 20 19 20 21 21 20 19 19 20 20 19 19 19 19 19 19 19 19 19 19 18 18 18 18 17 17 17 17 17 17 16 16 16 16 16 16 16 16 16 16 16 16 16 16 16 16 16 16
19 18 19 20 21 21 20 19 19 20 20 19 19 19 19 19 19 19 19 19 19 18 18 18 18 17 17 17 17 17 16 16 16 16 16 16 16 16 16 16 16 16 16 16 16 16 16 16 16
18 18 19 19 20 20 19 19 18 19 19 19 19 19 19 19 19 19 19 19 19 18 18 18 18 17 17 17 17 16 16 16 16 16 16 16 16 16 16 16 16 16 16 16 16 16 16 16 16
20 20 19 20 21 20 19 19 18 19 19 18 18 19 19 19 19 19 19 19 19 18 18 18 18 17 17 17 17 16 16 16 16 16 16 16 16 16 16 16 16 15 16 15 15 16 15 15 15
20 19 19 20 21 20 19 19 18 18 18 19 19 19 19 19 19 19 19 19 19 18 18 18 18 17 17 17 16 16 16 16 16 15 15 15 16 16 16 16 15 15 15 15 15 15 15 15 15
20 19 19 20 20 20 19 18 18 18 19 19 19 19 19 19 19 19 19 19 19 18 18 18 18 17 17 17 16 16 16 16 15 15 15 15 15 15 15 15 15 15 15 15 15 15 15 15 15
19 20 20 20 18 17 18 17 17 17 17 18 18 18 19 19 19 19 19 19 19 19 18 18 17 17 17 17 16 16 16 16 15 15 15 15 15 15 15 15 15 15 15 15 15 15 15 15 15
19 20 20 19 18 17 17 17 17 17 17 17 18 18 19 19 19 19 19 19 19 19 18 18 17 17 17 17 16 16 16 16 15 15 15 15 15 15 15 15 15 15 15 15 15 15 15 15 15
20 19 18 16 16 16 17 17 17 16 17 18 18 18 19 19 19 19 19 19 19 18 18 18 18 17 17 17 16 16 16 16 16 15 15 15 15 15 15 15 15 15 15 15 15 15 15 15 15
19 16 16 16 15 16 17 17 17 18 18 19 19 19 19 19 19 19 19 19 19 18 18 18 18 17 17 17 16 16 16 16 16 16 15 15 15 15 15 16 16 15 15 15 15 15 15 15 15
18 17 16 16 16 16 17 17 18 19 20 20 20 19 19 19 19 19 19 19 19 19 18 18 18 17 17 17 17 16 16 16 16 16 16 16 15 15 16 16 15 15 15 15 15 15 15 15 15
18 17 16 16 17 16 16 18 19 19 19 19 19 18 18 18 19 19 19 19 19 19 18 18 18 17 17 17 17 16 16 16 16 16 16 16 16 15 15 15 15 15 15 15 15 15 15 15 15
19 17 15 16 16 16 17 18 17 18 18 18 18 18 18 19 19 19 19 19 19 19 18 18 18 17 17 17 17 17 16 16 16 16 16 16 16 16 16 15 16 15 15 15 15 15 15 15 15
19 18 16 15 15 15 16 17 19 18 18 18 18 19 19 19 19 19 19 19 19 18 18 18 18 17 17 17 17 17 17 16 16 16 16 16 16 16 16 16 16 16 16 15 15 15 15 15 15
19 18 16 16 16 15 15 16 19 19 19 19 19 19 19 19 19 19 19 19 19 18 18 18 18 18 17 17 17 17 17 16 16 16 16 16 16 16 16 16 16 16 16 15 15 15 15 15 15

GEFSSGP_850_meantemp_168.txt.gz
Temperature
20 20 20 20 18 17 19 19 20 19 19 19 19 18 18 17 18 17 17 17 17 18 18 17 17 17 17 17 17 17 17 17 17 17 17 17 17 17 17 17 17 17 17 17 17 17 17 17 18
20 20 20 19 17 18 19 20 19 19 19 19 19 18 18 17 17 17 17 17 17 17 17 17 17 17 17 17 17 17 17 17 17 17 17 17 17 17 17 17 17 17 17 17 17 17 17 17 17
20 20 20 17 18 18 20 20 19 19 19 19 18 18 17 17 17 17 17 17 17 17 17 17 17 17 17 17 17 17 17 17 17 16 17 17 16 16 17 17 17 17 17 17 17 17 17 17 17
20 20 19 17 19 19 19 20 19 19 20 19 18 17 17 17 17 17 17 17 17 17 17 17 17 17 17 17 17 16 16 16 16 16 16 16 16 16 16 16 16 16 16 16 17 17 17 17 17
20 20 18 18 19 20 19 20 20 19 19 18 18 17 17 17 17 17 17 17 17 17 17 17 17 17 17 16 16 16 16 16 16 16 16 16 16 16 16 16 16 16 16 16 16 16 16 16 17
20 18 17 18 19 20 20 20 20 19 19 18 18 17 17 17 17 17 17 17 17 17 17 17 16 17 17 16 16 16 16 16 16 16 16 16 16 16 16 16 16 16 16 16 16 16 16 16 16
19 17 18 19 19 20 20 20 19 18 18 18 18 17 17 17 17 17 17 17 17 17 17 17 17 16 16 16 16 16 16 16 16 16 16 16 15 15 15 15 15 15 16 16 16 16 16 16 16
20 17 18 18 19 20 20 20 20 19 18 18 18 17 17 17 17 17 17 17 17 17 17 17 16 16 16 16 16 16 16 16 16 15 15 15 15 15 15 15 15 15 15 16 16 16 16 16 16
20 17 18 19 19 20 20 20 20 19 19 18 18 18 18 18 17 17 17 17 17 16 16 16 16 16 16 16 16 16 16 16 16 16 16 16 16 15 15 15 15 15 15 16 16 16 16 16 16
19 17 19 20 19 20 20 20 19 19 18 18 18 18 18 18 17 17 17 17 17 17 16 16 16 16 16 16 16 16 16 16 16 16 16 16 16 16 16 15 15 16 16 16 16 16 16 16 16
19 18 19 20 20 21 20 20 20 19 18 18 18 18 18 18 17 17 17 17 17 17 17 16 16 16 16 16 16 16 16 16 16 16 16 16 16 16 16 16 16 16 16 16 16 16 16 16 16
19 20 20 20 21 21 20 20 19 19 19 20 19 19 18 18 18 17 17 17 17 17 17 17 16 16 16 16 16 16 16 16 16 16 16 16 16 16 16 16 16 16 16 16 16 16 16 16 16
19 20 20 21 21 20 20 19 19 19 19 19 19 18 18 18 18 18 18 17 17 17 17 17 17 17 16 16 16 16 16 16 16 16 16 16 16 16 16 16 16 16 16 16 16 16 16 16 16
20 20 20 20 20 20 19 19 19 19 19 19 19 18 18 18 18 18 18 18 17 17 17 17 17 17 17 16 16 16 16 16 16 16 16 16 16 16 16 16 16 16 16 16 16 15 16 15 15
20 19 19 20 20 20 20 19 18 19 19 18 18 18 18 18 18 18 18 18 18 18 17 17 17 17 17 16 16 16 16 16 16 16 16 16 16 16 16 16 15 15 15 15 15 15 15 15 15
19 18 18 19 19 19 19 18 18 18 18 18 18 18 18 18 18 18 18 18 18 18 17 17 17 17 17 16 16 16 16 16 16 16 16 16 15 15 15 15 15 15 15 15 15 15 15 15 15
17 17 18 18 19 19 19 18 18 18 18 17 18 18 18 18 18 18 18 18 18 18 17 17 17 17 17 16 16 16 16 16 16 16 16 16 15 15 15 15 15 15 15 15 15 15 15 15 15
17 17 18 18 19 18 18 18 17 17 18 17 18 18 18 18 18 18 18 18 18 17 17 17 17 17 17 16 16 16 16 16 16 16 15 15 15 15 15 15 15 15 15 15 15 15 15 15 15
18 18 18 18 19 18 17 17 17 17 17 17 17 17 18 18 18 18 18 18 18 17 17 17 17 17 16 16 16 16 16 15 15 15 15 15 15 15 15 15 15 15 15 15 15 15 15 15 15
18 18 17 18 19 18 17 17 17 16 17 17 17 17 18 18 18 18 18 18 18 18 17 17 17 17 16 16 16 16 16 15 15 15 15 15 15 15 15 15 15 15 15 15 15 15 15 15 15
18 17 18 18 18 18 18 17 17 17 17 17 18 18 18 18 18 18 18 18 18 18 17 17 17 17 16 16 16 16 15 15 15 15 15 15 15 15 15 15 15 15 15 15 15 15 15 15 15
17 18 18 18 17 16 17 16 16 16 16 16 17 17 18 18 18 18 18 18 18 18 17 17 17 17 16 16 16 16 16 15 15 15 15 15 15 15 15 15 15 15 15 15 15 15 15 15 15
18 18 18 17 17 16 16 16 15 15 16 16 16 17 18 18 18 18 18 18 18 18 18 17 17 17 16 16 16 16 15 15 15 15 15 15 15 15 15 15 15 15 15 15 15 15 15 15 15
18 17 16 14 14 15 16 15 15 15 16 16 16 17 18 18 18 18 18 18 18 18 18 17 17 17 16 16 16 16 15 15 15 15 15 15 15 15 15 15 15 15 15 15 15 15 15 15 15
17 16 15 15 14 15 15 15 15 16 16 17 17 17 18 18 18 18 18 18 18 18 18 17 17 17 16 16 16 16 15 15 15 15 15 15 15 15 15 15 15 15 15 15 15 15 15 15 15
16 16 15 15 15 14 15 15 16 17 17 18 18 18 18 18 18 18 18 18 18 18 18 17 17 17 16 16 16 16 16 15 15 15 15 15 15 15 15 15 15 15 15 15 15 15 15 15 15
16 15 15 14 15 15 15 15 16 17 17 17 17 17 17 18 18 18 18 18 18 18 18 18 17 17 17 16 16 16 16 16 15 15 15 15 15 15 15 15 15 15 15 15 15 15 15 15 15
17 15 14 14 15 15 15 16 16 17 17 16 16 17 17 18 18 18 18 18 18 18 18 18 17 17 17 16 16 16 16 16 15 15 15 15 15 15 15 15 15 15 15 15 15 15 15 15 15
16 15 14 13 14 14 15 15 17 17 17 16 16 17 18 18 18 18 18 18 18 18 18 18 17 17 17 16 16 16 16 16 16 15 15 15 15 15 15 15 15 15 15 15 15 15 15 15 15
17 16 14 15 14 14 14 15 17 17 17 17 17 18 18 18 18 18 18 18 18 18 18 18 17 17 17 17 16 16 16 16 16 16 15 15 15 15 15 15 15 15 15 15 15 15 15 15 15

GEFSSGP_850_meantemp_174.txt.gz
Temperature
20 20 20 20 23 25 24 24 24 24 24 23 22 23 23 22 22 20 17 17 17 17 17 17 17 17 17 17 17 17 17 17 17 17 17 17 17 17 17 17 17 17 17 17 17 18 18 18 18
20 20 20 22 25 25 24 24 24 24 23 22 22 22 22 20 19 18 17 17 17 17 17 17 17 17 17 17 17 17 17 17 17 17 17 17 17 17 17 17 17 17 17 17 17 17 18 18 18
20 20 21 24 25 25 24 24 24 23 22 22 22 21 21 20 18 17 17 17 17 17 16 16 17 17 17 17 17 17 17 16 17 17 17 17 17 16 17 17 17 17 17 17 17 17 17 17 17
20 20 23 25 24 24 25 25 24 23 22 22 22 21 19 18 18 17 17 17 17 16 16 16 17 17 17 17 17 16 16 16 16 16 16 16 16 16 16 16 17 17 17 17 17 17 17 17 17
20 22 25 24 24 24 25 24 23 24 23 22 22 21 19 17 17 17 17 17 16 16 16 16 16 16 16 16 16 16 16 16 16 16 16 16 16 16 16 16 16 16 17 17 17 17 17 17 17
22 24 25 24 24 24 24 23 23 24 23 22 22 21 19 17 17 17 17 17 17 16 16 16 16 16 16 16 16 16 16 16 16 16 16 16 16 16 16 16 16 16 16 16 16 16 17 17 17
23 24 25 24 24 24 24 23 23 23 23 22 21 21 19 18 17 17 17 16 16 16 16 16 16 16 16 16 16 16 16 16 16 16 16 16 16 16 16 16 16 16 16 16 16 16 16 16 16
22 24 24 24 24 23 23 23 22 23 22 20 20 21 20 18 17 17 17 17 16 16 16 16 16 16 16 16 16 16 16 16 16 16 16 16 16 16 15 15 16 16 16 16 16 16 16 16 16
21 24 24 24 24 23 23 23 22 21 21 20 20 20 19 18 17 17 17 17 17 16 16 16 16 16 16 16 16 16 16 16 16 15 16 16 15 15 15 15 16 16 16 16 16 16 16 16 16
23 24 24 24 24 24 23 23 22 22 22 21 20 19 18 17 17 18 18 18 17 17 17 16 16 16 16 16 15 15 15 15 15 15 15 16 16 15 15 16 16 16 16 16 16 16 16 16 16
23 24 23 23 23 23 23 23 22 23 23 22 21 19 18 18 18 18 18 18 17 17 17 17 16 16 16 16 16 15 15 15 15 15 16 16 16 16 15 15 16 16 16 16 16 16 16 16 16
23 23 23 23 22 23 23 23 22 22 22 21 20 19 18 18 18 18 18 18 17 17 17 16 16 16 16 16 16 16 16 16 16 15 16 16 16 16 16 16 16 15 16 16 16 16 15 16 16
23 23 22 22 22 22 22 22 22 21 20 20 20 19 19 19 19 18 18 18 17 17 17 17 16 17 16 16 16 16 16 16 16 15 16 16 16 16 16 16 15 16 15 15 15 15 15 15 15
23 23 23 23 22 22 23 22 22 21 20 20 19 19 19 19 19 18 18 18 18 17 17 17 17 16 16 16 16 16 16 16 16 16 16 16 16 16 16 16 15 15 15 15 15 15 15 15 15
22 23 23 23 23 22 23 23 23 21 20 20 20 19 19 19 18 18 18 18 18 18 17 17 17 17 16 16 16 16 16 16 16 16 16 16 16 16 16 16 16 15 15 15 15 15 15 15 15
23 23 23 23 23 22 23 23 23 21 21 21 20 20 19 19 19 18 18 18 18 18 17 17 17 16 16 16 16 16 16 16 16 16 16 16 16 16 15 15 15 15 15 15 15 15 15 15 15
23 23 23 23 23 23 23 23 23 21 21 21 21 20 19 19 19 19 18 18 18 18 17 17 17 16 16 16 16 16 16 16 16 15 15 16 16 15 15 15 15 15 15 15 15 15 15 15 15
23 23 23 23 23 23 23 23 23 21 21 21 21 20 20 20 19 19 18 18 18 17 17 17 17 16 16 16 16 16 16 15 15 15 15 15 15 15 15 15 15 15 15 15 15 15 15 15 15
23 23 23 23 23 22 23 23 24 22 21 21 21 21 20 20 19 19 18 18 17 17 17 17 17 16 16 16 16 16 15 15 15 15 15 15 15 15 15 15 15 15 15 15 15 15 15 15 14
23 22 23 23 23 22 23 23 24 23 22 22 22 21 21 20 19 18 18 18 18 17 17 17 17 16 16 16 16 15 15 15 15 15 15 15 15 15 15 15 15 15 15 15 15 15 15 15 15
22 22 22 22 22 22 22 23 23 23 22 21 21 21 21 20 20 19 18 18 18 17 17 17 17 16 16 16 16 15 15 15 15 15 15 15 15 15 15 15 15 15 15 15 15 15 15 15 15
22 22 22 22 22 22 22 22 23 23 23 22 21 21 21 20 20 19 18 18 18 18 17 17 17 16 16 16 15 15 15 15 15 15 15 15 15 15 15 15 15 15 15 15 15 15 15 15 15
22 22 22 22 22 22 22 22 24 23 22 23 23 21 20 20 20 19 18 18 18 18 17 17 17 16 16 16 16 15 15 15 15 15 15 15 15 15 15 15 15 15 15 15 15 15 15 15 15
22 22 21 21 22 21 22 22 23 23 23 23 23 22 21 20 19 19 18 18 18 18 17 17 17 16 16 16 15 15 15 15 15 15 15 15 15 15 15 15 15 15 15 15 15 15 15 15 15
22 22 21 21 21 22 22 22 22 24 23 23 23 22 21 20 19 18 18 18 18 18 18 17 17 17 16 16 15 15 15 15 15 15 15 15 15 15 15 15 15 15 15 15 15 15 15 15 15
22 22 21 21 21 22 22 22 23 23 22 22 21 21 20 19 19 18 18 18 18 18 18 17 17 17 16 16 16 15 15 15 15 15 15 15 15 15 15 15 15 15 15 15 15 15 15 15 15
22 22 22 22 21 21 22 23 23 23 23 22 21 21 20 19 19 18 18 18 18 18 18 18 17 17 16 16 16 15 15 15 15 15 15 15 15 15 15 15 15 15 15 15 15 15 15 15 15
22 22 21 21 20 21 21 22 22 22 22 22 22 21 20 19 19 18 18 17 17 18 18 17 17 17 16 16 16 16 15 15 15 15 15 15 15 15 15 15 15 15 15 15 15 15 15 15 15
21 21 21 21 21 21 21 22 23 22 22 22 22 21 20 19 19 18 18 18 17 18 18 17 17 17 16 16 16 16 16 15 15 15 15 15 15 15 15 15 15 15 15 15 15 15 15 15 15
22 22 22 21 21 21 21 22 23 22 22 22 21 20 19 19 18 18 18 18 18 18 17 17 17 17 17 16 16 16 16 15 15 15 15 15 15 15 15 15 15 15 15 15 15 15 15 15 15

GEFSSGP_850_meantemp_180.txt.gz
Temperature
21 21 20 20 21 22 24 25 26 25 26 25 25 25 24 23 21 19 18 18 18 18 18 18 18 18 18 17 17 17 17 17 17 17 17 17 17 17 17 17 17 17 17 18 18 18 18 18 18
21 21 21 21 22 23 24 25 25 25 26 25 25 25 24 22 20 19 18 18 18 18 18 18 18 17 17 17 17 17 17 17 17 17 17 17 17 17 17 17 17 17 17 17 17 17 17 18 18
21 21 21 22 23 24 24 25 26 26 26 26 25 24 23 21 20 19 18 18 18 18 18 18 18 17 17 17 17 17 17 17 17 17 17 17 17 17 17 17 17 17 17 17 17 17 17 17 17
21 22 23 23 24 25 25 26 26 26 26 26 25 23 21 20 19 19 19 19 18 18 18 18 17 17 17 17 17 17 17 17 17 17 17 17 17 17 17 17 17 17 17 17 17 17 17 17 17
22 22 23 24 25 26 27 27 27 26 26 25 24 22 20 19 19 19 19 19 18 18 18 18 17 17 17 17 17 17 17 17 17 16 16 16 16 16 17 17 17 17 17 17 17 17 17 17 17
23 24 24 24 25 26 27 27 26 26 25 25 24 22 20 19 19 19 19 19 18 18 18 17 17 17 17 17 17 17 17 16 16 16 16 16 16 16 16 16 16 16 16 17 17 17 17 17 17
23 24 24 25 25 25 26 26 26 26 25 24 24 22 20 19 19 19 19 19 18 18 18 17 17 17 17 17 17 16 16 16 16 16 16 16 16 16 16 16 16 16 16 16 16 16 17 17 17
23 24 25 25 24 24 26 26 25 25 24 24 24 22 20 19 19 19 19 19 18 18 18 17 17 17 17 17 17 16 16 16 16 16 16 16 16 16 16 16 16 16 16 16 16 16 17 17 17
24 24 24 25 24 24 25 25 25 25 24 24 23 22 20 19 19 19 19 19 19 18 18 18 17 17 17 17 17 16 16 16 16 16 16 16 16 16 16 16 16 16 16 16 16 16 16 16 16
25 23 24 26 26 25 25 25 25 25 24 23 22 21 20 20 20 20 19 19 19 19 18 18 18 17 17 17 17 16 16 16 16 16 16 16 16 16 16 16 16 16 16 16 16 16 16 16 16
26 25 25 26 26 26 26 25 25 25 24 24 22 21 20 20 20 20 20 19 19 19 19 18 18 18 17 17 17 17 16 16 16 16 16 16 16 16 16 16 16 16 16 16 16 16 16 16 16
26 26 26 26 25 25 25 25 25 24 24 23 22 21 21 20 20 20 20 19 19 19 19 18 18 18 18 17 17 17 17 17 17 17 16 16 16 16 16 16 16 16 16 16 16 16 16 16 16
26 26 26 26 25 25 25 25 25 24 23 23 22 22 21 21 21 20 20 20 19 19 19 18 18 18 18 17 17 17 17 17 17 16 16 16 16 16 16 16 16 16 16 16 16 16 16 16 16
26 26 25 25 25 25 25 25 25 24 23 23 22 22 21 21 21 21 20 20 19 19 19 18 18 18 18 18 17 17 17 17 17 16 17 17 16 16 16 16 16 16 16 16 16 16 16 16 16
25 25 25 26 26 25 25 24 25 24 23 23 22 22 22 21 21 21 20 20 20 19 19 18 18 18 18 18 17 17 17 17 17 16 17 17 17 16 16 16 16 16 16 16 16 16 16 16 16
25 25 24 25 26 25 24 23 25 24 24 23 23 22 22 21 21 21 21 20 20 19 19 18 18 18 17 17 17 17 17 17 17 16 17 17 16 16 16 16 16 16 16 16 16 16 16 16 16
25 24 24 25 26 26 25 24 24 24 24 24 23 23 22 21 21 21 21 20 20 19 19 18 18 18 17 17 17 17 17 17 16 16 16 16 16 16 16 16 16 16 16 16 16 16 16 16 16
24 25 25 25 26 26 25 24 25 24 24 24 24 23 22 22 21 21 21 20 20 19 19 18 18 18 17 17 17 17 16 16 16 16 16 16 16 16 16 16 16 16 16 16 16 16 15 15 15
25 25 25 26 26 25 25 24 25 25 24 24 24 23 23 22 21 21 20 20 19 19 19 18 18 18 17 17 17 17 16 16 16 16 16 16 16 16 16 16 16 16 16 16 15 15 15 15 15
25 25 25 25 26 25 25 25 25 25 25 24 24 23 23 22 21 21 20 20 19 19 19 18 18 18 17 17 17 16 16 16 16 16 16 16 16 16 16 16 16 16 16 15 15 15 15 15 15
25 24 24 24 25 25 24 24 24 25 25 25 24 24 23 22 21 21 20 20 19 19 19 19 18 17 17 17 17 16 16 16 16 16 16 16 16 16 16 16 16 16 15 15 15 15 15 15 15
24 25 25 24 23 23 24 22 24 25 24 24 24 24 24 23 22 21 20 20 19 19 19 19 18 18 17 17 17 16 16 16 16 16 16 16 16 16 16 16 16 16 15 15 15 15 15 15 15
24 25 25 24 23 23 24 23 24 25 24 24 24 24 23 23 22 21 20 20 19 19 19 18 18 17 17 17 17 16 16 16 16 16 16 15 16 16 16 16 16 16 15 15 15 15 15 15 15
25 24 24 24 23 22 24 23 23 24 24 24 24 24 23 23 22 21 20 20 19 19 18 18 18 17 17 17 17 16 16 16 16 16 16 16 16 16 16 15 16 16 15 15 15 15 15 15 15
24 23 22 22 21 22 25 24 24 25 25 25 24 24 23 23 22 21 20 19 19 19 18 18 17 17 17 17 17 16 16 16 16 16 16 16 16 16 16 16 16 16 15 15 15 15 15 15 15
24 23 22 21 22 23 24 24 24 26 25 25 24 24 23 22 22 21 20 19 19 18 18 18 17 17 17 17 17 17 16 16 16 16 16 16 16 16 16 16 16 16 15 15 15 15 15 15 15
23 23 24 23 23 22 23 24 24 25 24 24 24 23 23 22 21 21 20 19 19 18 18 18 17 17 17 17 17 17 16 16 16 16 16 16 16 16 16 16 16 16 16 15 15 15 15 15 15
24 24 23 22 21 21 23 23 23 23 23 24 23 23 22 22 21 21 20 19 19 18 18 17 17 17 17 17 17 17 16 16 16 16 16 16 16 16 16 16 16 16 16 16 15 15 15 15 15
23 23 23 22 22 21 21 22 24 23 23 23 23 23 22 22 21 20 20 19 19 18 18 17 17 17 17 17 17 16 16 16 16 16 16 16 16 16 16 16 16 16 16 15 15 15 15 15 15
24 23 23 21 22 22 21 22 24 24 24 23 23 23 22 21 20 20 20 19 18 18 18 17 17 17 17 17 17 17 16 16 16 16 16 16 16 16 16 16 16 16 16 16 15 15 15 15 15

GEFSSGP_850_meantemp_186.txt.gz
Temperature
20 20 20 20 18 18 20 21 22 22 22 22 21 20 19 18 19 18 17 18 18 18 18 18 18 18 18 18 18 18 18 18 18 18 18 18 18 18 18 18 18 18 18 18 18 18 18 18 18
21 21 20 20 18 19 20 21 21 22 22 22 21 20 19 18 18 18 17 18 18 18 18 18 17 17 17 17 17 17 17 17 17 17 17 17 17 17 17 17 17 17 17 17 17 18 17 18 17
21 21 20 18 19 19 20 21 22 23 23 22 21 20 19 18 18 18 18 18 18 18 18 17 17 17 17 17 17 17 17 17 17 17 17 17 17 17 17 17 17 17 17 17 17 17 17 17 17
21 21 20 18 20 21 21 22 22 22 22 22 20 19 19 19 19 18 18 18 18 18 18 17 17 17 17 17 17 17 17 17 17 17 17 17 17 17 17 17 17 17 17 17 17 17 17 17 17
21 21 19 19 21 22 22 23 23 22 22 21 20 18 18 19 18 18 18 18 18 18 17 17 17 17 17 17 17 17 17 17 17 17 16 16 16 17 17 17 17 17 17 17 17 17 17 17 17
21 19 19 19 21 22 22 23 23 21 21 20 20 18 18 18 18 18 18 18 18 18 18 17 17 17 17 17 17 17 17 17 16 16 16 16 16 16 16 16 16 16 17 17 17 17 17 16 16
21 18 19 20 20 21 23 23 22 21 21 21 20 18 18 18 18 18 18 18 18 18 18 17 17 17 17 17 17 17 17 16 16 16 16 16 16 16 16 16 16 16 16 16 16 17 16 16 16
22 18 20 20 20 21 23 23 23 22 22 21 20 19 18 18 18 18 18 18 18 18 17 17 17 17 17 17 17 16 16 16 16 16 16 16 16 16 16 16 16 16 16 16 16 16 16 16 16
22 18 19 20 21 21 23 23 23 23 22 21 21 20 19 19 18 18 18 18 18 17 17 17 17 17 17 17 17 16 16 16 16 16 16 16 16 16 16 16 16 16 16 16 16 16 16 16 16
22 19 21 22 21 22 23 23 23 22 21 20 20 20 19 19 18 18 18 18 18 17 17 17 17 17 17 17 17 16 16 16 16 16 16 16 16 16 16 16 16 16 16 16 16 16 16 16 16
22 20 21 22 23 23 23 23 23 21 20 20 20 19 19 19 19 18 18 18 18 18 17 17 17 17 17 17 17 16 16 16 16 16 16 16 16 16 16 16 16 16 16 16 16 16 16 16 16
22 22 23 23 24 23 23 23 22 22 22 21 21 20 19 19 19 19 18 18 18 18 18 17 17 17 17 17 17 16 16 16 16 16 16 16 16 16 16 16 16 16 16 16 16 16 16 16 16
22 22 23 24 24 23 23 23 22 22 22 21 21 20 20 19 19 19 19 19 18 18 18 18 17 17 17 17 17 16 16 16 16 16 16 16 16 16 16 16 16 16 16 16 16 16 16 16 15
23 23 23 23 24 24 23 22 22 21 21 21 20 20 20 20 19 19 19 19 18 18 18 18 18 17 17 17 17 17 16 16 16 16 16 16 16 16 16 16 16 16 16 16 16 16 16 16 15
23 22 22 22 23 23 23 21 21 22 21 21 20 20 20 20 20 20 19 19 19 18 18 18 17 17 17 17 17 16 16 16 16 16 16 16 16 16 16 16 16 16 16 16 16 16 16 15 15
22 21 20 21 22 23 22 20 21 22 21 21 21 20 20 20 20 20 20 19 19 18 18 18 17 17 17 17 17 16 16 16 16 16 16 16 16 16 16 16 16 16 16 16 16 16 16 15 15
20 19 20 21 22 22 21 20 20 22 21 21 21 21 20 20 20 20 20 19 19 18 18 18 17 17 17 17 17 16 16 16 16 16 16 16 16 16 16 16 16 16 16 16 15 15 15 15 15
19 20 20 21 22 22 21 20 20 21 21 21 21 20 20 20 20 20 20 19 19 18 18 18 17 17 17 17 17 16 16 16 16 16 16 16 16 16 16 16 16 16 16 16 15 15 15 15 15
20 20 20 21 22 22 20 20 20 21 21 20 20 20 20 20 20 20 20 19 19 18 18 18 18 17 17 17 17 16 16 16 16 16 16 16 16 16 16 16 16 15 15 15 15 15 15 15 15
21 20 20 21 22 22 20 20 20 20 20 21 20 20 20 20 20 20 20 19 19 18 18 18 18 17 17 17 17 16 16 16 16 16 16 16 16 16 16 16 16 15 15 15 15 15 15 15 15
21 20 20 21 21 21 20 19 19 20 21 21 21 21 21 20 20 20 19 19 19 18 18 18 18 17 17 17 16 16 16 16 16 16 16 16 16 16 16 16 15 15 15 15 15 15 15 15 15
20 21 21 21 20 18 20 17 18 19 19 19 20 20 20 20 20 20 20 19 19 19 18 18 18 17 17 17 16 16 16 16 16 16 16 16 16 16 16 15 15 15 15 15 15 15 15 15 15
21 21 21 21 19 18 18 18 17 18 19 19 19 20 20 20 20 20 20 20 19 19 18 18 17 17 17 17 16 16 16 16 16 16 15 16 16 16 15 15 15 15 15 15 15 15 15 15 15
21 20 19 17 17 17 18 18 17 17 19 19 19 20 21 20 20 20 20 19 19 18 18 18 17 17 17 17 16 16 16 16 16 16 15 15 15 16 15 15 15 15 15 15 15 15 15 15 15
20 17 17 17 16 17 18 18 18 19 19 20 20 20 21 20 20 19 19 19 19 18 18 17 17 17 17 17 16 16 16 16 16 16 16 16 15 16 15 15 15 15 15 15 15 15 15 15 15
19 18 16 17 16 17 18 18 18 20 20 21 21 21 21 20 20 20 19 19 19 18 18 18 17 17 17 16 16 16 16 16 16 16 16 16 16 16 15 15 15 15 15 15 15 15 15 15 15
19 18 18 17 17 17 17 18 19 20 19 20 20 20 20 20 20 20 19 19 19 18 18 18 17 17 16 16 16 16 16 16 16 16 16 16 16 16 15 15 15 15 15 15 15 15 15 15 15
20 18 16 16 16 16 17 18 17 19 19 19 19 19 20 20 19 19 19 19 19 18 18 18 17 17 17 16 16 16 16 16 16 16 16 16 16 16 16 15 15 15 15 15 15 15 15 15 15
19 19 17 15 16 16 16 17 19 19 19 18 19 20 20 19 19 19 19 19 18 18 18 17 17 17 17 16 16 16 16 16 16 16 16 16 16 16 15 16 15 15 15 15 15 15 15 15 15
20 19 17 16 16 15 15 16 19 19 19 19 19 19 20 20 19 19 19 18 18 18 18 17 17 17 17 17 16 16 16 16 16 16 16 16 16 16 16 15 15 15 15 15 15 15 15 15 15

GEFSSGP_850_meantemp_192.txt.gz
Temperature
20 20 20 20 18 17 19 20 20 20 19 19 19 19 18 18 18 18 18 18 18 18 17 17 17 17 17 17 17 17 17 17 17 18 17 17 17 17 17 17 17 17 17 17 17 17 17 17 17
20 20 20 20 17 18 19 20 20 20 20 20 19 19 18 17 17 18 18 18 18 18 17 17 17 17 17 17 17 17 17 17 17 17 17 17 17 17 17 17 17 17 17 17 17 17 17 17 17
20 20 20 17 18 18 20 20 20 20 20 20 19 18 18 17 18 18 18 18 18 18 17 17 17 17 17 17 17 17 17 17 17 17 17 17 17 17 17 17 17 17 17 17 17 17 17 17 17
20 20 20 17 19 19 20 20 20 20 20 20 19 18 18 18 18 18 18 17 17 17 17 17 17 17 17 17 17 17 17 17 17 17 17 17 16 17 17 17 17 17 17 17 17 17 17 17 17
20 20 18 18 19 20 20 20 20 20 19 19 18 17 17 18 18 18 18 17 17 17 17 17 17 17 17 17 16 16 16 17 16 16 16 16 16 16 16 16 16 17 17 17 16 17 17 17 17
21 18 17 18 19 20 20 21 20 20 19 19 18 17 17 18 18 18 17 17 17 17 17 17 17 17 16 16 16 16 16 16 16 16 16 16 16 16 16 16 16 16 16 16 16 16 16 16 16
20 17 18 19 19 20 21 21 20 19 19 19 19 17 17 18 18 17 17 17 17 17 17 17 17 16 16 16 16 16 16 16 16 16 16 16 16 16 16 16 16 16 16 16 16 16 16 16 16
21 17 18 18 19 20 21 21 21 20 19 19 19 18 18 18 18 17 17 17 17 17 17 17 17 16 16 16 16 16 16 16 16 16 16 16 16 16 16 16 16 16 16 16 16 16 16 16 16
21 17 18 19 19 20 21 21 21 20 20 19 19 19 19 18 18 17 17 17 17 17 17 17 16 16 16 16 16 16 16 16 16 16 16 16 16 16 16 15 15 16 16 16 16 16 16 16 16
20 18 20 20 20 20 21 21 21 20 19 19 19 19 19 18 18 18 17 17 17 17 17 17 17 16 16 16 16 16 16 16 16 16 16 15 15 15 15 15 15 15 15 15 15 15 16 16 16
20 19 20 21 21 21 21 21 21 20 19 19 19 19 19 18 18 18 18 18 17 17 17 17 17 16 16 16 16 16 16 16 16 16 15 15 15 15 15 15 15 15 15 15 15 15 15 16 16
20 20 21 21 22 22 21 21 20 20 21 21 21 20 19 18 18 18 18 18 17 17 17 17 17 16 16 16 16 16 16 16 16 16 15 15 15 15 15 15 15 15 15 15 15 15 15 15 16
20 20 21 22 22 22 22 21 20 20 21 21 20 19 19 19 19 18 18 18 17 17 17 17 17 17 16 16 16 16 16 16 16 16 15 15 16 16 15 15 15 15 15 15 15 15 15 15 15
20 21 21 21 22 22 21 20 20 20 21 20 20 20 19 19 19 18 18 18 18 18 17 17 17 17 16 16 16 16 16 16 16 16 15 15 16 15 15 15 15 15 15 15 15 15 15 15 15
21 20 20 21 21 21 21 20 19 21 20 20 20 20 19 19 19 19 19 18 18 18 17 17 17 17 16 16 16 16 16 16 16 16 15 15 15 15 15 15 15 15 15 15 15 15 15 15 15
20 19 19 20 20 21 21 19 19 20 20 19 19 19 19 19 19 19 19 18 18 18 18 17 17 17 16 16 16 16 16 16 16 16 15 15 15 15 15 15 15 15 15 15 15 15 15 15 15
18 18 19 19 20 20 20 19 19 20 19 19 19 19 19 19 19 19 19 19 18 18 18 17 17 17 16 16 16 16 16 16 16 16 16 15 15 15 15 15 15 15 15 15 15 15 15 15 15
18 18 19 19 20 20 19 18 18 19 19 19 19 19 19 20 20 20 19 19 18 18 18 17 17 17 16 16 16 16 16 16 16 16 16 15 15 15 15 15 15 15 15 15 15 15 15 15 15
19 19 19 19 20 19 18 18 18 18 18 18 18 19 19 20 20 20 19 19 18 18 18 17 17 16 16 16 16 16 16 16 16 15 15 15 15 15 15 15 15 15 15 15 15 15 15 15 15
19 19 19 19 19 19 18 18 18 18 18 18 18 19 20 20 20 19 19 19 18 18 18 17 17 17 16 16 16 16 16 15 15 15 15 15 15 15 15 15 15 15 15 15 15 15 15 14 14
19 18 19 19 19 19 19 18 18 18 18 19 19 19 19 20 20 19 19 19 18 18 18 17 17 17 16 16 16 16 16 15 15 15 15 15 15 15 15 15 15 15 15 15 15 15 15 15 14
18 19 19 19 18 17 18 16 17 17 17 17 18 19 19 19 19 19 19 19 18 18 18 18 17 17 16 16 16 16 16 16 15 15 15 15 15 15 15 15 15 15 15 15 15 15 15 15 14
19 19 19 18 18 17 17 16 16 16 17 17 18 19 19 19 19 19 19 19 19 18 18 17 17 17 16 16 16 16 16 16 15 15 15 15 15 15 15 15 15 15 15 14 14 14 14 14 14
19 18 17 15 15 16 17 16 16 16 17 18 18 19 19 20 19 19 19 19 18 18 18 17 17 17 16 16 16 16 16 15 15 15 15 15 15 15 15 15 15 15 15 14 14 14 14 14 14
18 16 16 16 15 15 16 16 16 17 17 17 18 19 20 19 19 19 19 19 18 18 18 17 17 17 16 16 16 16 15 15 15 15 15 15 15 15 15 15 15 15 15 15 14 14 14 14 14
17 17 16 16 15 15 16 15 16 18 18 18 19 19 19 19 19 19 19 19 18 18 18 17 17 17 16 16 16 16 15 15 15 15 15 15 15 15 15 15 15 15 15 15 15 15 15 15 15
17 16 16 15 15 15 15 15 16 18 18 18 18 19 19 19 19 19 19 19 18 18 18 17 17 17 16 16 16 16 16 16 15 15 15 15 15 15 15 15 15 15 15 15 15 15 15 15 15
17 15 14 15 15 15 16 16 16 18 18 17 17 18 18 19 19 19 19 18 18 18 17 17 17 17 16 16 16 16 16 16 15 15 15 15 15 15 15 15 15 15 15 15 15 15 15 15 15
17 16 14 13 14 14 15 15 17 17 17 17 17 18 18 18 18 19 19 18 18 18 17 17 17 17 16 16 16 16 16 16 15 15 15 15 15 15 15 15 15 15 15 15 15 15 15 15 15
17 16 15 15 14 13 14 15 17 17 17 17 18 18 18 18 18 18 18 18 18 17 17 17 17 17 16 16 16 16 16 16 15 15 15 15 15 15 15 15 15 15 15 15 15 15 15 15 15

GEFSSGP_850_meantemp_198.txt.gz
Temperature
20 20 20 20 24 25 24 24 25 24 24 23 22 23 23 22 22 21 18 17 17 17 17 17 17 17 17 17 17 17 17 17 17 17 17 17 17 17 17 17 17 17 17 17 17 17 17 17 17
20 21 20 23 25 25 24 24 24 24 23 22 22 22 22 21 20 19 18 17 17 17 17 17 17 17 17 17 17 17 17 17 17 17 17 17 17 17 17 17 17 17 17 17 17 17 17 17 17
21 21 22 25 25 25 24 24 24 23 22 23 22 22 22 20 19 18 17 17 17 17 16 16 17 17 17 17 17 17 17 17 17 17 17 17 17 17 17 17 17 17 17 17 17 17 17 17 17
20 21 23 25 24 24 24 24 24 24 23 22 22 22 20 19 18 18 17 17 17 17 16 16 17 17 17 17 17 17 17 17 17 17 17 17 17 16 17 17 17 17 17 17 17 17 17 17 17
20 23 25 25 24 24 25 24 24 24 24 23 23 22 20 18 18 18 17 17 17 17 16 16 17 16 16 16 16 16 16 16 16 16 16 16 16 16 16 17 17 17 17 17 17 17 17 17 17
22 25 25 24 24 24 25 24 24 24 23 23 22 22 20 18 18 17 17 17 17 16 16 16 17 16 16 16 16 16 16 16 16 16 16 16 16 16 16 16 16 16 16 16 16 16 16 16 16
23 25 25 25 24 24 24 24 24 24 24 23 22 22 20 18 18 17 17 17 17 16 16 16 16 16 16 16 16 16 16 16 16 16 16 16 16 16 16 16 16 16 16 16 16 16 16 16 16
22 25 24 25 24 24 24 23 23 23 23 21 21 22 21 18 17 17 17 17 17 16 16 16 16 16 16 16 16 16 16 16 16 16 16 16 16 16 16 16 16 16 16 16 16 16 16 16 16
22 25 24 24 24 24 24 24 23 22 22 21 21 21 20 18 18 17 17 17 17 17 17 16 16 16 16 16 16 16 16 16 16 16 16 16 15 15 15 16 16 16 16 16 16 16 16 16 16
24 24 24 24 25 25 24 24 23 23 23 22 21 19 19 18 18 18 18 18 17 17 17 17 16 16 16 16 16 16 16 16 16 16 15 15 15 15 15 16 16 16 16 16 16 16 16 15 15
24 24 24 24 24 24 24 23 23 24 23 23 21 20 19 19 19 18 18 18 18 17 17 17 16 16 16 16 16 16 16 16 16 16 15 15 15 15 15 15 15 15 15 15 15 15 15 15 15
24 24 24 24 23 23 24 23 23 23 23 22 21 20 19 19 19 19 18 18 18 17 17 17 16 16 16 16 16 16 16 16 16 15 15 15 15 15 15 15 15 15 15 15 15 15 15 15 15
24 24 23 23 23 23 23 23 23 23 22 21 21 20 20 20 19 19 18 18 18 17 17 17 16 16 16 16 16 16 16 16 16 15 15 15 15 15 15 15 15 15 15 15 15 15 15 15 15
24 23 23 23 23 23 23 23 23 22 21 21 21 20 20 20 19 19 18 18 18 18 17 17 16 16 16 16 16 16 16 16 16 15 15 15 15 15 15 15 15 15 15 15 15 15 15 15 15
23 24 24 24 24 23 24 24 24 22 21 21 21 21 20 20 19 19 19 19 18 18 18 17 16 16 16 16 16 16 16 16 16 15 15 15 15 15 15 15 15 15 15 15 15 15 15 15 15
24 24 23 24 24 23 24 23 24 22 22 22 22 21 20 20 19 19 19 19 18 18 18 17 16 16 16 16 16 16 16 16 16 16 15 16 16 15 15 15 15 15 15 15 15 15 15 15 15
24 24 23 24 24 24 24 23 24 22 22 22 22 22 21 20 20 19 19 19 18 18 18 17 17 16 16 16 16 16 16 16 15 15 15 15 15 15 15 15 15 15 15 15 15 15 15 15 14
23 24 23 23 24 24 23 24 24 22 22 22 22 22 21 21 20 20 19 19 18 18 18 17 17 16 16 16 16 16 16 16 15 15 15 15 15 15 15 15 15 15 15 15 15 15 15 14 14
24 23 23 23 24 23 23 23 24 23 22 22 22 22 22 21 20 20 19 18 18 18 17 17 17 16 16 16 16 16 16 15 15 15 15 15 15 15 15 15 15 15 15 15 15 15 14 14 14
23 23 23 23 23 23 23 23 24 23 23 23 23 22 22 21 21 20 19 18 18 18 17 17 17 16 16 16 16 16 15 15 15 15 15 15 15 15 15 15 15 15 15 15 14 14 14 14 14
23 23 23 23 23 23 23 23 23 24 23 22 22 22 22 21 21 20 19 19 18 18 17 17 17 17 16 16 16 16 15 15 15 15 15 15 15 15 15 15 15 15 15 15 14 14 14 14 14
22 23 23 22 22 23 23 23 23 24 23 23 22 22 22 21 21 20 19 18 18 18 18 17 17 17 16 16 16 16 15 15 15 15 15 15 15 15 15 15 15 14 15 14 14 14 14 14 14
23 22 22 22 23 23 23 23 24 24 23 23 23 22 21 21 20 20 19 19 18 18 18 17 17 16 16 16 16 15 15 15 15 15 15 15 15 15 15 15 15 15 14 14 14 14 14 14 14
22 22 22 22 22 22 23 23 23 24 23 24 23 22 21 21 20 19 19 18 18 18 17 17 17 16 16 16 16 15 15 15 15 15 15 15 15 15 15 15 14 14 14 14 14 14 14 14 14
22 22 22 22 22 22 23 22 23 24 24 23 23 22 21 20 20 19 19 18 18 18 17 17 17 16 16 16 16 16 15 15 15 15 15 15 15 15 15 15 15 15 14 14 14 14 14 14 14
22 22 22 22 22 22 22 22 24 24 23 22 22 22 21 20 20 19 19 18 18 17 17 17 17 16 16 16 16 16 15 15 15 15 15 15 15 15 15 15 15 15 15 15 14 14 14 14 14
22 22 22 22 22 22 23 23 24 24 23 22 22 21 21 20 19 19 18 18 18 18 17 17 17 16 16 16 16 16 15 15 15 15 15 15 15 15 15 15 15 15 15 15 15 15 14 14 14
22 22 22 22 21 21 22 22 23 23 23 23 22 21 20 20 19 19 18 18 17 17 17 17 16 16 16 16 16 16 15 15 15 15 15 15 15 15 15 15 15 15 15 15 15 15 15 14 15
21 21 22 22 21 21 21 22 24 23 23 23 22 21 20 20 19 18 18 18 17 17 17 17 16 16 16 16 16 16 16 15 15 15 15 15 15 15 15 15 15 15 15 15 15 15 14 14 14
21 21 21 21 21 21 22 22 23 23 23 22 22 21 20 19 18 18 17 17 17 17 17 16 16 16 16 16 16 15 15 15 15 15 15 15 15 15 15 15 15 15 15 15 15 15 14 14 14

GEFSSGP_850_meantemp_204.txt.gz
Temperature
22 21 21 21 22 23 24 25 26 26 26 26 26 25 24 23 22 20 19 19 19 18 18 18 18 18 18 17 17 17 17 18 18 18 18 18 18 18 18 18 18 18 17 17 17 17 17 17 18
22 21 21 22 22 24 24 25 25 25 26 26 25 25 24 22 21 19 19 19 19 18 18 18 18 18 17 17 17 17 17 17 17 18 18 17 17 17 17 17 17 17 17 17 17 17 17 17 17
22 21 22 23 24 24 24 25 25 26 26 26 25 24 23 22 20 19 19 19 19 18 18 18 18 17 17 17 17 17 17 17 17 17 17 17 17 17 17 17 17 17 17 17 17 17 17 17 17
21 22 24 24 24 25 26 26 26 26 26 26 25 24 22 21 20 19 19 19 18 18 18 18 17 17 17 17 17 17 17 17 17 17 17 17 17 17 17 17 17 17 17 17 17 17 17 17 17
22 23 24 24 25 26 27 27 27 26 26 26 25 23 21 20 20 19 19 19 18 18 18 17 17 17 17 17 17 17 17 17 17 17 17 17 17 17 17 17 17 17 17 17 17 17 17 17 17
23 24 24 24 25 26 27 27 27 26 26 25 25 23 21 20 19 19 19 19 18 18 17 17 17 17 17 17 17 17 17 17 17 17 17 17 17 17 17 17 17 17 17 17 17 17 17 17 17
24 24 24 25 25 25 26 26 26 26 25 25 25 23 21 20 19 19 19 18 18 18 17 17 17 17 17 17 17 17 17 16 16 16 16 16 17 17 17 17 17 17 17 16 16 16 17 17 17
24 25 25 25 25 25 26 26 26 25 25 25 24 23 21 20 19 19 19 19 18 18 18 17 17 17 17 17 17 17 17 16 16 16 16 16 16 16 16 16 16 16 16 16 16 16 16 16 16
25 24 24 25 25 25 26 26 25 25 24 24 23 22 21 20 20 19 19 19 19 18 18 18 17 17 17 17 17 17 16 16 16 16 16 16 16 16 16 16 16 16 16 16 16 16 16 16 16
25 23 24 26 26 26 26 26 26 25 25 24 23 22 21 20 20 20 19 19 19 19 18 18 18 17 17 17 17 17 16 16 16 16 16 16 16 16 16 16 16 16 16 16 16 16 16 16 16
26 25 26 26 26 26 26 26 25 25 24 24 23 22 21 21 21 20 20 20 19 19 18 18 18 17 17 17 17 17 17 17 16 16 16 16 16 16 16 16 16 16 16 16 16 16 16 16 16
26 26 26 26 26 26 26 26 25 25 24 24 23 22 21 21 21 21 20 20 19 19 19 18 18 18 17 17 17 17 17 17 16 16 16 16 16 16 16 16 16 16 16 16 16 16 16 16 16
26 26 26 26 26 26 26 26 25 24 24 23 23 22 22 22 21 21 20 20 19 19 19 18 18 18 18 17 17 17 17 17 16 16 16 16 16 16 16 16 16 16 16 16 16 16 16 16 16
26 26 26 26 26 26 26 25 25 24 24 23 23 23 22 22 21 21 20 20 20 19 19 18 18 18 18 17 17 17 17 17 17 16 16 16 16 16 16 16 16 16 16 16 16 16 16 16 16
26 26 26 26 26 26 25 24 25 24 24 24 23 23 22 22 22 21 21 20 20 19 19 18 18 18 18 17 17 17 17 17 17 16 16 17 16 16 16 16 16 16 16 16 16 16 16 15 15
26 25 24 25 26 26 25 23 25 24 24 24 24 23 23 22 22 21 21 21 20 20 19 18 18 18 18 17 17 17 17 17 17 16 16 16 16 16 16 16 16 16 16 16 16 16 15 15 15
25 24 24 25 26 26 25 24 25 25 25 24 24 24 23 22 22 22 21 21 20 20 19 19 18 18 18 17 17 17 17 17 16 16 16 16 16 16 16 16 16 16 16 15 15 15 15 15 15
24 25 25 25 26 26 25 24 25 25 25 25 24 24 23 23 22 22 21 21 20 20 19 19 18 18 18 17 17 17 17 16 16 16 16 16 16 16 16 16 16 16 15 15 15 15 15 15 15
25 25 25 26 26 26 25 25 25 25 25 24 24 24 24 23 22 22 21 21 20 20 19 19 18 18 18 17 17 17 16 16 16 16 16 16 16 16 16 16 16 15 15 15 15 15 15 15 15
25 25 25 25 26 26 25 25 25 25 25 24 24 24 24 23 23 22 21 21 20 20 19 19 19 18 18 17 17 17 16 16 16 16 16 16 16 16 16 16 15 15 15 15 15 15 15 15 15
25 25 24 24 25 26 25 24 24 25 25 25 24 24 24 23 23 22 21 20 20 20 19 19 18 18 18 17 17 17 16 16 16 16 16 16 16 16 16 16 15 15 15 15 15 15 15 15 15
24 25 25 24 24 23 25 22 23 24 24 24 24 24 24 23 23 22 21 20 20 19 19 19 18 18 18 17 17 17 16 16 16 16 16 16 16 16 16 16 15 15 15 15 15 15 15 15 15
24 25 25 24 24 23 24 23 23 24 23 24 24 24 24 23 23 22 21 20 20 19 19 19 18 18 17 17 17 16 16 16 16 16 16 16 15 15 15 15 15 15 15 15 15 15 15 15 15
25 24 24 24 23 22 24 24 23 24 24 24 25 24 24 23 23 22 21 21 20 19 19 18 18 18 17 17 17 16 16 16 16 16 16 16 15 15 15 15 15 15 15 15 15 15 15 15 15
24 23 22 22 21 22 25 24 23 25 25 25 25 24 24 23 22 22 21 20 20 19 19 18 18 17 17 17 17 16 16 16 16 16 16 16 16 15 15 15 15 15 15 15 15 15 15 15 15
24 23 22 21 22 23 25 24 24 26 25 25 25 24 23 23 22 21 21 20 19 19 18 18 18 17 17 17 17 16 16 16 16 16 16 16 16 16 15 15 15 15 15 15 15 15 15 15 15
23 23 24 23 23 22 24 24 24 25 25 25 24 24 23 22 22 21 20 20 19 19 18 18 17 17 17 17 16 16 16 16 16 16 16 16 16 16 15 15 15 15 15 15 15 15 15 15 15
23 23 23 22 21 21 23 23 23 24 24 24 23 23 22 22 21 21 20 19 19 18 18 18 17 17 17 17 16 16 16 16 16 16 16 16 16 16 16 15 15 15 15 15 15 15 15 15 15
23 23 22 22 22 21 21 22 24 24 24 24 23 23 22 22 21 20 20 19 19 18 18 17 17 17 17 17 17 16 16 16 16 16 16 16 16 16 16 16 15 15 15 15 15 15 15 15 15
23 22 22 21 21 22 21 22 25 24 24 24 23 23 22 21 21 20 19 19 18 18 17 17 17 17 17 17 16 16 16 16 16 16 16 16 16 16 16 16 16 15 15 15 15 15 15 15 15

GEFSSGP_850_meantemp_210.txt.gz
Temperature
21 21 22 21 19 18 20 21 21 22 22 22 22 21 20 19 19 18 18 18 18 18 18 18 18 18 18 18 18 18 18 18 18 18 18 18 18 18 18 18 18 18 18 18 18 18 18 18 18
22 22 22 21 18 18 20 21 21 22 23 22 22 21 20 19 19 18 18 18 18 18 18 18 18 18 18 17 18 18 18 18 18 18 18 18 17 18 18 18 18 18 18 18 18 17 17 17 17
22 22 22 18 19 19 21 21 22 23 23 23 21 20 20 19 19 18 18 18 18 18 18 18 18 18 17 17 17 17 17 17 17 17 17 17 17 17 17 17 17 17 17 17 17 17 17 17 17
22 22 21 19 20 21 21 21 22 23 23 22 21 20 19 19 19 18 18 18 18 18 18 18 17 17 17 17 17 17 17 17 17 17 17 17 17 17 17 17 17 17 17 17 17 17 17 17 17
22 22 19 19 21 21 21 23 23 22 22 21 20 19 19 19 19 18 18 18 18 18 18 17 17 17 17 17 17 17 17 17 17 17 17 17 17 17 17 17 17 17 17 17 17 17 17 17 16
22 20 19 19 21 22 22 23 23 22 21 21 20 19 18 18 19 18 18 18 18 18 18 17 17 17 17 17 17 17 17 17 17 17 17 17 17 17 17 17 17 17 17 17 17 17 17 16 16
21 18 19 20 20 21 22 23 23 22 22 21 21 18 18 18 19 19 18 18 18 18 18 17 17 17 17 17 17 17 17 17 17 17 16 16 16 16 16 16 17 16 17 16 16 16 16 16 16
22 19 20 20 20 21 23 23 23 23 22 22 21 19 18 19 19 19 18 18 18 18 18 17 17 17 17 17 17 17 17 16 16 16 16 16 16 16 16 16 16 16 16 16 16 16 16 16 16
23 18 19 21 21 21 23 23 23 23 22 22 21 21 20 19 19 18 18 18 18 18 18 18 17 17 17 17 17 17 16 16 16 16 16 16 16 16 16 16 16 16 16 16 16 16 16 16 16
22 19 21 22 22 22 23 23 23 22 21 20 20 20 20 19 19 19 18 18 18 18 18 17 17 17 17 17 17 16 16 16 16 16 16 16 16 16 16 16 16 16 16 16 16 16 16 16 16
22 21 22 23 23 23 23 23 23 22 20 20 20 20 20 19 19 19 19 19 18 18 18 18 17 17 17 17 17 16 16 16 16 16 16 16 16 16 16 16 16 16 16 16 16 16 16 16 16
22 23 23 23 24 24 23 23 22 22 22 22 22 21 20 20 20 19 19 19 18 18 18 18 17 17 17 17 17 17 16 16 16 16 16 16 16 16 16 16 16 16 16 16 16 16 16 16 16
22 23 24 24 24 23 23 23 22 22 22 22 21 21 20 20 20 20 19 19 19 18 18 18 18 17 17 17 17 17 16 16 16 16 16 16 16 16 16 16 16 16 16 16 16 16 16 16 16
23 23 23 23 23 23 22 22 22 22 22 22 21 21 21 20 20 20 19 19 19 18 18 18 18 17 17 17 17 17 16 16 16 16 16 16 16 16 16 16 16 16 16 15 16 16 16 15 15
23 22 22 22 23 23 22 21 21 22 22 21 21 21 21 20 20 20 20 19 19 19 18 18 18 17 17 17 17 17 16 16 16 16 16 16 16 16 16 16 16 16 15 15 15 15 15 15 15
22 21 20 21 22 23 21 20 21 22 22 21 21 21 21 21 20 20 20 20 19 19 18 18 18 18 17 17 17 17 17 16 16 16 16 16 16 16 16 16 16 15 15 15 15 15 15 15 15
20 19 20 21 22 22 21 20 20 22 22 21 21 21 21 21 20 20 20 20 19 19 19 18 18 18 17 17 17 17 17 16 16 16 16 16 16 16 16 16 15 15 15 15 15 15 15 15 15
19 20 20 20 22 22 20 20 20 22 21 21 21 21 21 21 21 20 20 20 19 19 19 18 18 18 17 17 17 17 16 16 16 16 16 16 16 16 16 15 15 15 15 15 15 15 15 15 15
21 20 20 21 22 21 20 19 20 21 21 20 20 21 21 21 21 20 20 20 19 19 19 18 18 18 17 17 17 17 16 16 16 16 16 16 16 16 15 15 15 15 15 15 15 15 15 15 15
21 20 20 21 22 21 20 19 20 20 20 21 21 21 21 21 20 20 20 20 19 19 19 18 18 18 17 17 17 17 16 16 16 16 16 16 16 16 16 15 15 15 15 15 15 15 15 15 15
21 20 20 20 21 21 20 19 19 20 20 21 21 21 21 21 20 20 20 19 19 19 19 18 18 18 17 17 17 16 16 16 16 16 16 16 16 16 16 15 15 15 15 15 15 15 15 15 15
20 21 21 21 19 18 19 17 18 18 19 19 20 20 20 20 20 20 20 19 19 19 19 18 18 18 17 17 17 17 16 16 16 16 16 16 16 15 15 15 15 15 15 15 15 15 15 15 15
20 21 21 20 19 18 18 17 17 18 18 18 19 20 20 20 20 20 20 20 19 19 19 18 18 18 17 17 17 17 16 16 16 16 16 16 16 15 15 15 15 15 15 15 15 15 15 15 15
21 20 19 17 17 17 18 17 17 17 18 19 19 20 20 20 20 20 20 20 19 19 19 18 18 17 17 17 17 16 16 16 16 16 16 16 16 15 15 15 15 15 15 15 15 15 15 15 15
19 17 16 17 16 16 18 18 17 18 19 19 19 20 20 20 20 20 20 19 19 19 18 18 18 17 17 17 17 16 16 16 16 16 16 16 16 15 15 15 15 15 15 15 15 15 15 15 15
19 17 16 17 16 16 18 17 18 19 20 20 20 20 20 20 20 20 20 19 19 19 18 18 18 17 17 17 16 16 16 16 16 16 16 16 16 16 15 15 15 15 15 15 15 15 15 15 15
19 17 17 16 17 16 17 17 18 19 19 19 19 20 20 20 20 20 19 19 19 19 18 18 18 17 17 17 17 16 16 16 16 16 16 16 16 15 15 15 15 15 15 15 15 15 15 15 15
19 18 15 16 16 16 17 17 17 18 18 18 18 19 19 19 19 19 19 19 19 19 18 18 18 17 17 17 16 16 16 16 16 16 16 16 16 15 15 15 15 15 15 15 15 15 15 15 15
18 17 16 14 15 15 16 16 18 18 18 18 18 19 19 19 19 19 19 19 19 19 18 18 17 17 17 17 16 16 16 16 16 16 16 16 16 16 16 15 15 15 15 15 15 15 15 15 15
18 17 15 15 15 14 14 16 18 18 18 18 18 19 19 19 19 19 19 19 18 18 18 18 17 17 17 17 16 16 16 16 16 16 16 16 16 16 16 15 15 15 15 15 15 15 15 15 15

GEFSSGP_850_meantemp_216.txt.gz
Temperature
21 21 21 21 18 17 19 19 19 20 19 20 19 19 18 18 18 18 18 18 18 18 18 18 17 17 17 17 17 17 18 18 18 18 18 18 18 18 17 17 17 17 17 17 17 17 17 17 17
21 21 21 21 17 17 19 19 20 20 20 20 20 19 18 18 18 18 18 18 18 18 18 17 17 17 17 17 17 17 17 17 17 17 17 17 17 17 17 17 17 17 17 17 17 17 17 17 17
21 21 21 17 17 18 20 20 20 20 20 20 19 19 18 18 18 18 18 18 18 18 17 17 17 17 17 17 17 17 17 17 17 17 17 17 17 17 17 17 17 17 17 17 17 17 17 17 17
21 21 21 17 19 19 19 20 20 20 20 20 19 18 18 18 18 18 18 18 18 18 17 17 17 17 17 17 17 17 17 17 17 17 17 17 17 17 17 17 17 17 17 17 17 17 17 17 17
22 21 18 18 19 20 19 20 20 20 20 19 19 18 18 18 18 18 18 18 18 17 17 17 17 17 17 17 16 17 17 17 17 17 17 17 17 17 17 17 17 17 17 17 17 17 17 16 17
22 19 17 18 19 20 20 21 20 20 19 19 19 18 18 18 18 18 18 18 17 17 17 17 17 17 16 16 16 16 16 16 16 16 16 16 16 16 16 16 16 16 16 16 16 16 16 16 16
20 17 18 19 19 20 21 21 20 19 19 19 19 18 18 18 18 18 18 18 17 17 17 17 17 17 16 16 16 16 16 16 16 16 16 16 16 16 16 16 16 16 16 16 16 16 16 16 16
21 17 18 18 19 20 21 21 21 20 20 20 20 18 18 19 18 18 18 17 17 17 17 17 17 16 16 16 16 16 16 16 16 16 16 16 16 16 16 16 16 16 16 16 16 16 16 16 16
21 17 18 19 19 20 21 21 21 20 20 19 19 20 20 19 18 18 18 17 17 17 17 17 17 17 16 16 16 16 16 16 16 16 16 16 16 16 16 16 16 16 16 16 16 16 16 16 16
21 18 20 20 20 20 21 21 21 20 19 19 19 20 19 19 18 18 18 18 18 17 17 17 17 17 16 16 16 16 16 16 16 16 16 16 16 16 16 16 16 16 16 16 16 16 16 16 16
21 19 20 21 21 21 21 21 21 20 19 20 20 20 19 19 19 18 18 18 18 17 17 17 17 17 17 16 16 16 16 16 16 16 16 16 16 16 16 16 16 16 15 15 15 15 15 15 15
20 21 21 21 22 21 21 21 20 20 21 21 21 20 20 19 19 19 19 18 18 18 17 17 17 17 17 16 16 16 16 16 16 16 16 16 16 16 16 16 15 15 15 15 15 15 15 15 15
21 21 21 22 22 21 21 20 20 20 21 21 21 20 20 19 19 19 19 18 18 18 17 17 17 17 17 16 16 16 16 16 16 16 16 16 16 16 15 15 15 15 15 15 15 15 15 15 15
21 21 21 21 21 21 20 20 20 20 21 21 20 20 20 20 19 19 19 18 18 18 18 17 17 17 17 16 16 16 16 16 16 16 16 15 15 15 15 15 15 15 15 15 15 15 15 15 15
21 20 20 20 21 21 21 19 19 20 20 20 20 20 20 19 19 19 19 19 18 18 18 17 17 17 17 16 16 16 16 16 16 16 16 15 15 15 15 15 15 15 15 15 15 15 15 15 15
20 19 19 20 20 20 20 19 19 20 20 19 19 19 19 19 19 19 19 19 18 18 18 18 17 17 17 16 16 16 16 16 16 16 16 15 15 15 15 15 15 15 15 15 15 15 15 15 15
18 18 19 19 19 19 19 19 18 19 19 18 19 19 19 19 19 19 19 19 19 18 18 18 17 17 17 16 16 16 16 16 16 16 15 15 15 15 15 15 15 15 15 15 15 15 15 14 14
18 18 19 19 19 19 18 18 17 18 18 18 19 19 19 19 19 19 19 19 19 18 18 18 17 17 17 16 16 16 16 16 16 16 15 15 15 15 15 15 15 15 15 15 15 14 14 14 14
19 18 18 18 19 19 18 17 17 18 18 18 18 19 19 19 20 19 19 19 18 18 18 18 17 17 17 16 16 16 16 16 16 16 16 15 15 15 15 15 15 15 15 15 15 14 14 14 14
18 18 18 18 19 19 17 17 17 17 17 18 18 18 19 19 19 19 19 19 18 18 18 18 17 17 17 17 16 16 16 16 16 16 16 15 15 15 15 15 15 15 15 15 14 14 14 14 14
18 18 18 18 18 18 18 17 17 17 18 18 18 18 19 19 19 19 19 18 18 18 18 18 18 17 17 17 16 16 16 16 16 16 16 15 15 15 15 15 15 15 15 15 14 14 14 14 14
18 19 19 18 17 16 17 16 16 16 16 16 17 18 18 19 19 19 19 19 18 18 18 18 17 17 17 17 16 16 16 16 16 16 16 15 15 15 15 15 15 15 15 15 14 14 14 14 14
18 18 18 18 17 16 16 16 15 15 16 16 16 17 18 18 19 19 19 19 19 18 18 18 17 17 17 17 16 16 16 16 16 16 16 15 15 15 15 15 15 15 15 15 14 14 14 14 14
18 17 16 15 15 15 16 15 15 15 16 16 16 17 18 18 18 19 19 19 19 18 18 18 17 17 17 17 16 16 16 16 16 16 15 15 15 15 15 15 15 15 15 15 15 14 14 14 14
17 16 15 16 14 15 15 15 15 16 16 16 17 17 18 18 18 18 18 18 18 18 18 18 17 17 17 17 16 16 16 16 16 16 15 15 15 15 15 15 15 15 15 15 14 14 14 14 14
16 16 15 16 15 15 15 15 15 16 17 17 18 18 18 18 18 18 18 18 18 18 18 18 17 17 17 17 16 16 16 16 16 16 15 15 15 15 15 15 15 15 15 15 14 14 14 14 14
16 15 15 14 15 15 14 15 16 16 16 16 17 17 18 18 18 18 18 18 18 18 18 18 18 17 17 17 16 16 16 16 16 16 15 15 15 15 15 15 15 15 15 15 14 14 14 14 14
16 14 13 14 14 14 15 15 15 16 16 15 15 16 17 18 18 18 18 18 18 18 17 17 17 17 17 17 17 16 16 16 16 15 15 15 15 15 15 15 15 15 15 15 15 14 14 14 14
15 14 13 12 13 13 14 14 16 15 15 15 15 17 17 17 17 17 17 17 17 17 17 17 17 17 17 17 16 16 16 16 15 15 15 15 15 15 15 15 15 15 15 15 14 14 14 14 14
15 14 13 13 13 12 13 14 16 15 15 15 16 16 17 17 17 17 17 17 17 17 17 17 17 17 17 16 16 16 16 16 16 16 16 16 15 15 15 15 15 15 15 15 15 14 14 14 14

GEFSSGP_850_meantemp_222.txt.gz
Temperature
21 21 21 21 25 25 24 24 25 24 24 23 22 22 23 22 22 21 18 18 17 17 17 17 17 17 17 17 17 17 17 17 17 17 17 17 17 17 17 17 17 17 17 17 17 17 17 17 17
21 22 21 23 26 25 24 24 24 24 23 22 22 22 22 21 20 19 18 17 17 17 17 17 17 17 17 17 17 17 17 17 17 17 17 17 17 17 17 17 17 17 17 17 17 17 17 17 17
22 22 23 25 25 25 24 24 24 23 22 22 22 22 22 20 19 19 18 17 17 17 17 17 17 17 17 17 17 17 17 17 17 17 17 17 17 17 17 17 17 17 17 17 17 17 17 17 17
21 22 24 26 24 24 24 25 24 24 23 22 23 22 21 19 19 18 18 17 17 17 17 16 17 17 17 17 17 17 17 17 17 17 17 17 17 17 17 17 17 17 17 17 17 17 17 17 17
22 24 25 25 24 24 25 24 24 24 24 23 23 22 21 19 18 18 18 18 17 17 17 16 17 17 17 16 16 16 17 17 17 17 17 17 17 17 17 17 17 17 17 17 17 17 17 17 17
23 25 25 24 24 24 25 24 24 24 23 23 23 22 21 19 18 18 18 18 17 17 17 16 17 17 16 16 16 16 16 16 16 16 16 17 17 16 16 16 16 17 17 16 16 16 16 16 16
24 25 25 25 24 24 24 23 24 24 24 23 22 22 21 19 18 18 18 17 17 17 17 16 16 16 16 16 16 16 16 16 16 16 16 16 16 16 16 16 16 16 16 16 16 16 16 16 16
23 25 24 24 24 24 24 23 23 23 23 22 22 23 21 19 18 18 18 17 17 17 17 17 16 16 16 16 16 16 16 16 16 16 16 16 16 16 16 16 16 16 16 16 16 16 16 16 16
23 25 24 24 24 24 24 24 23 22 22 21 21 21 20 19 18 18 18 18 17 17 17 17 17 16 16 16 16 16 16 16 16 16 16 16 16 16 16 16 16 16 16 16 16 16 16 16 16
24 25 24 24 25 24 24 24 23 23 23 22 21 20 19 19 19 19 19 18 18 18 17 17 17 16 16 16 16 16 16 16 16 16 16 16 16 16 15 16 16 16 16 16 16 16 16 15 15
25 25 24 24 24 24 24 23 23 23 23 22 22 21 20 19 19 19 19 19 18 18 17 17 17 17 16 16 16 16 16 16 16 16 16 16 15 15 15 15 15 15 15 15 15 15 15 15 15
24 24 24 24 23 23 23 23 23 22 22 22 21 20 20 19 19 19 19 19 18 18 17 17 17 17 16 16 16 16 16 16 16 16 16 15 15 15 15 15 15 15 15 15 15 15 15 15 15
24 24 23 23 23 23 23 23 23 22 21 21 21 20 20 20 19 19 19 19 18 18 17 17 17 17 17 16 16 16 16 16 16 15 15 15 15 15 15 15 15 15 15 15 15 15 15 15 15
24 24 23 23 23 23 23 23 23 22 21 21 21 20 20 20 19 19 19 19 18 18 18 17 17 17 17 16 16 16 16 16 16 15 15 15 15 15 15 15 15 15 15 15 15 15 15 15 15
23 24 24 23 23 23 23 23 23 21 21 21 21 20 20 20 19 19 19 19 18 18 18 17 17 17 17 16 16 16 16 16 16 15 15 15 15 15 15 15 15 15 15 15 15 15 15 15 14
24 24 24 23 23 23 23 23 22 21 21 21 21 21 20 20 19 19 19 19 18 18 18 17 17 17 16 16 16 16 16 16 16 15 15 15 15 15 15 15 15 15 15 15 15 15 15 14 14
24 24 24 23 23 23 23 22 22 21 21 21 21 21 20 20 19 19 19 18 18 18 18 17 17 17 16 16 16 16 16 16 16 15 15 15 15 15 15 15 15 15 15 15 15 14 14 14 14
24 24 24 23 23 23 23 23 22 21 21 21 21 21 20 20 20 19 19 18 18 18 17 17 17 17 16 16 16 16 16 15 15 15 15 15 15 15 15 15 15 15 15 14 14 14 14 14 14
24 24 23 23 23 23 23 22 23 22 21 21 21 21 20 20 19 19 18 18 18 17 17 17 17 17 16 16 16 16 16 15 15 15 15 15 15 15 15 15 15 15 15 14 14 14 14 14 14
23 23 23 23 23 23 22 22 23 22 21 21 21 21 20 20 19 18 18 18 18 17 17 17 17 17 16 16 16 16 15 15 15 15 15 15 15 15 15 15 15 15 15 14 14 14 14 14 14
23 23 23 23 22 22 22 22 22 22 21 20 20 20 20 20 19 19 18 18 17 17 17 17 17 17 16 16 16 15 15 15 15 15 15 15 15 15 15 15 15 15 15 14 14 14 14 14 14
23 23 22 22 22 23 22 22 23 22 22 21 21 20 20 19 19 19 18 17 17 17 17 17 17 17 16 16 16 16 16 16 16 16 15 15 15 15 15 15 15 15 15 14 14 14 14 14 14
22 22 22 22 22 22 22 22 23 22 22 22 21 20 20 19 19 18 18 17 17 17 17 17 16 16 16 16 16 16 15 16 16 15 15 15 15 15 15 15 15 15 15 14 14 14 14 14 14
21 22 22 22 22 22 22 22 22 22 22 22 21 20 19 19 18 18 17 17 17 17 17 16 16 16 16 16 16 16 16 16 16 15 15 15 15 15 15 15 15 15 15 15 14 14 14 14 14
22 22 22 22 22 22 22 21 22 22 22 21 21 20 19 19 18 18 17 17 17 17 16 16 16 16 16 16 16 16 16 15 15 15 15 15 15 15 15 15 15 15 15 15 14 14 14 14 14
21 22 22 21 22 22 21 21 22 22 21 20 20 20 19 18 18 18 17 17 17 16 16 16 16 16 16 16 16 16 15 15 15 15 15 15 15 15 15 15 15 15 15 15 15 14 14 14 14
21 22 22 22 22 21 22 22 22 21 21 20 20 19 19 18 18 17 17 17 16 16 16 16 16 16 16 16 16 15 16 15 15 15 15 15 15 15 15 15 15 15 15 15 14 14 14 14 14
21 21 21 21 20 21 21 21 22 21 20 20 20 19 18 18 17 17 17 16 16 16 16 16 16 16 15 15 15 15 15 15 15 15 15 15 15 15 15 15 15 15 15 15 14 14 14 14 14
20 20 21 21 21 21 21 21 21 21 20 20 20 19 18 18 17 17 16 16 16 16 16 16 16 16 15 15 15 15 15 15 15 15 15 15 15 15 15 15 15 15 15 15 15 14 14 14 14
20 20 20 20 20 20 20 21 21 20 20 19 19 18 18 17 17 16 16 16 16 16 16 16 16 15 15 15 15 15 15 15 15 15 15 15 15 15 15 15 15 15 15 15 15 14 14 14 14

GEFSSGP_850_meantemp_228.txt.gz
Temperature
23 22 22 22 22 23 24 25 26 25 26 25 25 25 24 23 22 20 19 19 19 18 18 18 18 18 18 18 18 18 18 18 18 18 18 17 17 17 17 17 17 17 17 17 17 17 17 18 18
23 22 22 23 23 23 24 25 25 25 26 25 25 24 24 22 21 20 19 19 19 18 18 18 18 18 17 17 17 17 17 18 17 17 17 17 17 17 17 17 17 17 17 17 17 17 17 17 17
23 22 23 24 24 24 24 25 25 26 26 26 25 24 23 22 21 20 19 19 19 18 18 18 18 17 17 17 17 17 17 17 17 17 17 17 17 17 17 17 17 17 17 17 17 17 17 17 17
22 23 25 25 25 25 26 26 26 26 26 25 25 23 22 21 20 20 19 19 19 18 18 18 18 18 17 17 17 17 17 17 17 17 17 17 17 17 17 17 17 17 17 17 17 17 17 17 17
23 24 25 25 25 26 26 27 26 26 26 25 24 23 21 20 20 20 19 19 19 18 18 18 18 18 17 17 17 17 17 17 17 17 17 17 17 17 17 17 17 17 17 17 17 17 17 17 17
24 25 24 24 25 26 26 26 26 26 25 25 24 23 21 20 20 20 20 19 19 18 18 18 18 18 17 17 17 17 17 17 17 17 17 17 17 17 17 17 17 17 17 17 17 17 17 17 17
25 25 25 25 24 25 26 26 26 25 25 25 24 23 21 20 20 20 20 19 19 19 18 18 18 18 18 17 17 17 17 17 17 17 17 17 17 17 17 17 17 17 17 17 17 17 17 17 16
25 25 26 25 25 25 26 26 26 25 25 25 24 23 22 21 20 20 20 19 19 19 18 18 18 18 17 17 17 17 17 17 17 17 16 16 16 16 16 16 16 17 17 17 16 16 16 16 16
25 25 24 25 25 25 26 26 25 25 24 24 24 23 22 21 20 20 20 19 19 19 19 18 18 18 17 17 17 17 17 17 17 16 16 16 16 16 16 16 16 16 16 16 16 16 16 16 16
26 24 25 26 26 26 26 26 25 25 24 24 23 22 21 21 21 20 20 20 20 19 19 19 18 18 17 17 17 17 17 17 16 16 16 16 16 16 16 16 16 16 16 16 16 16 16 16 16
27 25 26 27 26 26 26 26 25 25 24 24 23 22 22 21 21 21 21 20 20 19 19 19 18 18 18 17 17 17 17 17 16 16 16 16 16 16 16 16 16 16 16 16 16 16 16 16 16
27 27 27 26 26 26 26 25 25 24 24 24 23 22 22 21 21 21 21 20 20 19 19 19 18 18 18 17 17 17 17 17 17 16 16 16 16 16 16 16 16 16 16 16 16 16 16 16 16
26 26 26 26 25 25 25 25 24 24 24 23 23 22 22 22 21 21 21 20 20 19 19 19 18 18 18 17 17 17 17 17 17 16 16 16 16 16 16 16 16 16 16 16 16 16 15 15 15
26 26 26 26 26 25 25 24 24 24 24 23 23 22 22 22 21 21 21 20 20 19 19 19 18 18 18 18 17 17 17 17 17 17 16 16 16 16 16 16 16 16 16 16 16 15 15 15 15
26 26 26 26 26 25 25 24 24 24 24 23 23 23 22 22 22 21 21 20 20 20 19 19 18 18 18 18 17 17 17 17 17 17 17 16 16 16 16 16 16 16 16 15 15 15 15 15 15
26 25 24 25 26 26 24 23 24 24 24 24 23 23 22 22 22 21 21 20 20 20 19 19 18 18 18 18 17 17 17 17 17 17 17 16 16 16 16 16 16 16 15 15 15 15 15 15 15
25 25 25 25 26 26 24 23 24 24 24 24 23 23 22 22 21 21 21 20 20 19 19 19 18 18 18 17 17 17 17 17 16 16 16 16 16 16 16 16 16 15 15 15 15 15 15 15 15
25 26 26 25 26 25 24 24 24 24 24 24 23 23 23 22 21 21 20 20 20 19 19 19 18 18 17 17 17 17 17 17 16 16 16 16 16 16 16 16 16 15 15 15 15 15 15 15 15
26 26 25 26 26 25 24 24 24 24 24 24 23 23 23 22 21 21 20 20 19 19 19 18 18 18 17 17 17 17 17 16 16 16 16 16 16 16 16 16 15 15 15 15 15 15 15 14 15
26 25 25 26 26 25 24 24 25 24 24 24 23 23 23 22 21 21 20 19 19 19 18 18 18 17 17 17 17 17 16 16 16 16 16 16 16 16 16 16 15 15 15 15 15 15 15 14 14
25 25 25 25 25 25 24 23 24 24 24 23 23 23 22 22 21 20 20 19 19 18 18 18 18 17 17 17 17 16 16 16 16 16 16 16 16 16 16 15 15 15 15 15 15 15 15 14 14
24 25 25 25 24 23 24 22 23 24 23 23 23 22 22 21 21 20 19 19 18 18 18 18 17 17 17 17 16 16 16 16 16 16 16 16 16 16 16 15 15 15 15 15 15 15 15 15 15
25 25 25 25 24 23 24 23 23 24 23 23 23 22 22 21 21 20 19 19 18 18 18 18 17 17 17 17 16 16 16 16 16 16 16 16 16 16 16 16 15 15 15 15 15 15 15 15 15
25 24 24 24 24 22 24 24 23 23 23 23 23 22 21 21 20 20 19 18 18 18 18 17 17 17 17 16 16 16 16 16 16 16 16 16 16 16 16 15 15 15 15 15 15 15 15 15 15
24 23 22 22 22 22 25 24 23 23 24 23 23 22 21 21 20 19 19 18 18 18 17 17 17 17 16 16 16 16 16 16 16 16 16 16 16 16 15 15 15 15 15 15 15 15 15 15 15
24 24 22 22 22 23 24 23 23 24 23 23 22 22 21 20 20 19 19 18 18 17 17 17 17 16 16 16 16 16 16 16 16 16 16 16 16 16 15 15 15 15 15 15 15 15 15 15 15
23 23 24 23 23 23 24 23 23 23 23 23 22 22 21 20 20 19 18 18 18 17 17 17 16 16 16 16 16 16 16 16 16 16 16 16 16 16 15 15 15 15 15 15 15 15 15 15 15
23 23 23 22 22 22 23 23 22 22 22 22 22 21 21 20 19 19 18 18 17 17 17 17 16 16 16 16 16 16 16 16 16 16 16 16 16 16 16 15 15 15 15 15 15 15 15 15 15
23 23 23 23 22 22 21 22 23 22 22 22 21 21 20 20 19 19 18 18 17 17 17 16 16 16 16 16 16 16 16 16 16 16 16 16 16 16 16 15 15 15 15 15 15 15 15 15 15
23 22 22 21 21 22 21 21 23 23 22 22 21 21 20 20 19 19 18 18 17 17 17 16 16 16 16 16 16 15 15 16 16 16 16 16 15 16 16 16 16 15 15 15 15 15 15 15 15

GEFSSGP_850_meantemp_234.txt.gz
Temperature
22 22 22 22 19 18 20 21 21 22 22 22 21 21 20 19 18 18 18 18 18 18 18 18 18 18 18 18 18 18 18 18 18 18 18 18 18 18 18 18 17 18 18 17 17 18 18 17 17
22 22 22 21 18 18 20 21 21 22 22 22 21 21 20 19 19 18 18 18 18 18 18 18 18 18 18 18 18 18 18 17 17 17 18 18 18 17 17 17 17 17 17 17 17 17 17 17 17
22 22 22 18 19 19 21 21 21 22 23 22 21 21 20 19 19 19 19 18 18 18 18 18 18 18 18 18 18 18 17 17 17 17 18 17 17 17 17 17 17 17 17 17 17 17 17 17 17
22 22 22 19 20 20 21 21 22 22 22 22 21 20 19 19 19 19 19 19 18 18 18 18 18 18 18 18 17 17 17 17 17 17 17 17 17 17 17 17 17 17 17 17 17 17 17 17 17
23 22 19 19 20 21 21 22 23 22 22 21 20 19 19 19 19 19 19 19 19 18 18 18 18 18 18 17 17 17 17 17 17 17 17 17 17 17 17 17 17 17 17 17 17 17 17 17 17
23 20 19 19 21 21 22 23 23 21 21 21 20 19 19 19 19 19 19 19 19 18 18 18 18 18 17 17 17 17 17 17 17 17 17 17 17 17 17 17 17 17 17 17 17 17 16 16 16
22 19 20 20 20 21 22 23 22 21 21 21 21 19 19 19 19 19 19 19 19 18 18 18 18 18 17 17 17 17 17 17 17 17 17 17 17 17 16 17 17 17 17 16 16 16 16 16 16
23 19 20 20 20 21 23 23 23 22 22 22 21 19 19 19 19 19 19 19 19 18 18 18 18 17 17 17 17 17 17 17 17 17 16 16 16 16 16 16 16 16 16 16 16 16 16 16 16
24 19 19 20 20 21 23 23 23 23 22 22 21 21 20 20 19 19 19 19 18 18 18 18 18 17 17 17 17 17 17 17 16 16 16 16 16 16 16 16 16 16 16 16 16 16 16 16 16
23 19 21 22 21 21 22 23 23 22 21 21 21 21 20 20 19 19 19 19 19 18 18 18 18 17 17 17 17 17 17 16 16 16 16 16 16 16 16 16 16 16 16 16 16 16 16 16 16
22 21 22 23 23 23 23 23 23 21 20 20 20 20 20 20 19 19 19 19 19 18 18 18 18 17 17 17 17 17 17 16 16 16 16 16 16 16 16 16 16 16 16 16 16 16 16 16 16
22 22 23 23 24 23 23 23 22 22 22 22 21 21 20 20 20 19 19 19 19 18 18 18 18 17 17 17 17 17 16 16 16 16 16 16 16 16 16 16 16 16 16 16 16 15 15 15 15
22 22 23 23 24 23 23 22 22 22 22 22 21 21 20 20 20 19 19 19 19 18 18 18 18 17 17 17 17 17 16 16 16 16 16 16 16 16 16 16 16 16 15 15 15 15 15 15 15
23 23 23 23 23 23 22 22 22 22 22 21 21 20 20 20 20 19 19 19 19 18 18 18 18 17 17 17 17 17 16 16 16 16 16 16 16 16 16 16 16 15 15 15 15 15 15 15 15
24 22 22 22 23 22 22 20 20 22 21 21 21 20 20 20 20 19 19 19 19 18 18 18 18 17 17 17 17 16 16 16 16 16 16 16 16 16 16 16 16 15 15 15 15 15 15 15 15
22 21 20 21 22 22 21 19 20 22 21 20 20 20 20 20 19 19 19 19 19 18 18 18 17 17 17 17 17 16 16 16 16 16 16 16 16 16 16 16 15 15 15 15 15 15 15 15 15
20 19 20 21 21 21 20 19 20 21 21 20 20 20 20 20 19 19 19 19 19 18 18 18 17 17 17 17 16 16 16 16 16 16 16 16 16 16 16 16 15 15 15 15 15 15 15 15 14
20 20 20 20 21 21 20 19 20 21 20 20 20 20 20 20 19 19 19 19 18 18 18 18 17 17 17 17 16 16 16 16 16 16 16 16 16 16 16 16 15 15 15 15 15 15 15 14 14
21 21 20 21 21 21 19 19 19 20 20 19 19 19 19 19 19 19 19 19 18 18 18 17 17 17 17 17 16 16 16 16 16 16 16 16 16 16 16 15 15 15 15 15 15 15 14 14 14
21 20 20 21 21 21 19 19 19 19 19 20 19 19 19 19 19 19 19 19 18 18 18 18 17 17 17 16 16 16 16 16 16 16 16 16 16 16 16 15 15 15 15 15 15 15 14 14 14
21 20 20 20 21 20 20 19 18 19 19 19 19 19 19 19 19 19 19 18 18 18 18 17 17 17 17 16 16 16 16 16 16 15 15 15 16 16 16 15 15 15 15 15 15 15 14 14 14
20 21 21 21 19 18 19 17 17 18 18 18 18 18 19 19 19 19 18 18 18 18 17 17 17 17 17 16 16 16 16 16 16 16 15 15 15 15 15 15 15 15 15 15 15 15 14 14 14
21 22 21 21 19 18 18 17 17 17 17 17 17 18 18 19 19 18 18 18 18 18 17 17 17 17 16 16 16 16 16 16 16 15 15 15 15 15 15 15 15 15 15 15 15 15 14 14 14
21 20 19 17 17 17 18 17 17 16 17 17 18 18 18 18 18 18 18 18 18 17 17 17 17 17 16 16 16 16 16 16 15 15 15 15 15 15 15 15 15 15 15 15 15 15 15 15 14
20 17 17 17 16 16 18 17 17 17 18 18 18 18 18 18 18 18 18 17 17 17 17 17 17 17 16 16 16 16 16 15 15 15 15 15 15 15 15 15 15 15 15 15 15 15 15 15 14
19 17 16 17 17 17 17 17 17 18 19 19 18 18 18 18 18 18 18 17 17 17 17 17 17 16 16 16 16 16 16 15 15 15 15 15 15 15 15 15 15 15 15 15 15 15 15 15 15
19 17 17 16 17 17 16 17 18 18 17 17 17 17 18 18 18 18 17 17 17 17 17 17 16 16 16 16 16 16 15 15 15 15 15 15 15 15 15 15 15 15 15 15 15 15 15 15 15
20 18 16 16 17 16 17 17 16 17 17 17 16 17 17 18 18 17 17 17 17 17 16 16 16 16 16 16 16 15 15 15 15 15 15 15 15 15 15 15 15 15 15 15 15 15 15 15 15
19 18 16 15 15 15 16 16 17 17 16 16 16 17 17 17 17 17 17 17 17 17 16 16 16 16 16 16 16 15 15 15 15 15 15 15 15 15 15 15 15 15 15 15 15 15 15 15 15
18 17 16 15 15 15 14 15 17 17 17 17 17 17 17 17 17 17 17 17 17 16 16 16 16 16 16 16 15 15 15 15 15 15 15 15 15 15 15 15 15 15 15 15 15 15 15 15 15